GFSNE_925_thetae_000.txt.gz
Theta_e
292 293 293 293 294 295 295 296 295 295 295 296 297 298 298 300 300 301 301 301 301 299 298 300 302 303 306 309 312 314 315 319 318 317 316 315 316 314
293 292 292 292 293 293 293 293 294 294 294 294 294 295 295 296 296 298 299 298 301 299 297 298 299 301 301 303 306 308 310 314 318 318 316 315 316 315
291 290 290 290 291 292 292 292 293 293 293 294 294 295 295 295 295 295 297 297 298 298 297 297 297 299 300 299 300 300 300 303 313 317 317 316 315 315
289 289 289 290 290 290 291 291 292 292 292 292 292 293 294 295 295 296 296 296 296 296 296 297 296 296 295 297 298 299 299 299 303 311 317 316 316 315
289 289 289 289 289 290 290 289 289 289 290 290 290 291 292 292 293 294 295 295 295 296 296 296 296 296 295 297 296 299 298 298 299 305 309 316 316 316
287 287 287 287 287 287 287 287 287 287 287 288 288 289 290 291 292 292 292 292 293 294 295 296 296 296 296 297 299 300 298 298 299 302 307 311 314 316
285 285 285 285 286 286 286 286 286 285 285 285 286 286 287 288 289 290 292 293 294 295 296 296 296 296 296 297 298 298 298 298 299 301 305 308 311 314
283 283 283 283 283 283 283 284 284 285 284 284 285 285 285 285 286 288 290 291 291 293 292 294 295 295 296 296 297 297 297 296 296 300 301 305 308 309
283 283 282 282 283 283 283 283 284 284 284 284 284 285 285 285 285 286 288 289 289 290 291 291 293 294 295 296 296 297 297 297 296 297 300 304 306 308
283 283 283 283 283 283 283 283 283 283 283 284 284 284 285 285 285 285 286 286 287 288 289 290 292 292 294 295 295 296 295 295 296 298 299 300 304 304
282 282 282 283 283 283 284 284 284 284 284 284 284 284 285 285 286 286 285 285 285 286 287 288 290 291 291 293 294 294 294 294 295 298 299 301 303 304
282 282 282 282 282 283 283 283 284 284 284 285 285 285 285 285 286 287 286 286 286 284 287 288 289 289 289 291 293 293 294 293 293 296 298 300 303 304
281 282 282 282 283 283 283 283 284 284 284 285 284 285 285 285 285 286 287 287 287 286 287 288 288 288 290 289 291 291 291 292 292 293 295 299 301 301
283 282 283 283 283 284 284 283 283 283 284 284 284 285 285 285 285 286 286 287 287 287 287 287 288 288 287 284 284 290 290 290 289 291 293 295 299 300
282 282 282 282 281 282 283 283 284 284 284 284 284 284 285 285 285 286 286 286 287 287 287 287 287 287 288 287 288 288 288 288 287 288 288 291 294 296
281 280 280 280 280 280 281 282 282 283 284 284 284 284 283 284 285 286 286 286 286 287 287 287 288 287 286 287 288 287 287 286 285 285 285 285 287 290
282 280 279 279 279 279 279 280 281 283 285 285 285 284 283 283 284 285 285 286 287 285 285 286 286 286 287 288 285 286 285 284 283 283 283 282 282 283
280 280 278 278 278 279 278 279 280 281 282 285 284 284 284 284 285 286 286 287 285 284 282 282 283 283 283 282 284 284 284 283 282 282 282 281 280 282
280 279 278 278 278 278 278 278 278 279 281 283 286 286 285 286 287 286 286 285 284 283 282 282 283 283 281 279 279 281 282 282 281 281 282 281 279 280
277 277 277 277 278 278 277 277 277 278 279 279 281 283 285 285 285 284 284 283 281 281 281 281 282 282 281 278 276 279 280 281 281 280 279 280 280 280
274 275 275 275 276 277 277 277 277 277 277 278 279 280 282 284 283 284 283 282 281 281 280 280 281 282 282 280 276 277 279 280 281 281 279 279 278 278
273 273 273 274 275 276 277 277 277 277 277 277 278 278 279 280 281 281 281 281 280 280 278 278 278 280 280 277 273 274 275 276 278 278 279 280 279 278
271 272 273 273 274 275 276 277 277 277 277 277 277 277 277 277 277 278 278 278 278 278 278 278 278 278 276 275 274 273 273 274 274 275 276 277 278 279

GFSNE_925_thetae_003.txt.gz
Theta_e
293 292 293 293 293 293 293 294 294 293 292 293 294 294 294 294 295 296 296 297 299 298 302 300 298 299 301 300 303 306 308 310 315 320 319 317 317 317
292 292 291 290 290 290 291 292 293 293 292 293 293 294 294 296 296 295 294 295 296 297 299 298 297 296 296 298 298 298 300 301 306 314 319 318 317 317
289 289 289 288 289 289 289 290 291 292 292 292 292 293 293 293 293 293 294 294 295 296 296 296 296 296 297 297 295 296 299 299 301 307 314 318 318 318
289 289 289 289 289 289 289 290 290 291 291 291 292 292 292 293 293 293 293 294 294 294 294 295 295 295 298 296 295 295 296 299 299 300 306 314 315 317
288 288 288 288 288 288 288 288 288 288 288 288 288 289 290 290 291 291 292 292 292 292 292 292 293 293 295 298 296 296 297 300 299 298 299 304 313 315
286 286 286 285 285 285 285 286 286 286 287 287 286 287 288 288 289 289 290 290 290 290 290 290 291 293 295 296 298 297 297 298 298 297 297 299 306 311
284 284 283 283 284 284 285 285 285 285 285 285 285 285 285 286 287 287 287 288 288 290 290 289 292 295 296 297 297 297 296 297 297 297 298 298 301 307
282 282 282 282 282 282 283 283 283 284 284 284 284 284 284 284 285 285 285 286 287 288 290 290 293 293 295 295 296 296 296 296 297 297 297 296 298 302
282 282 282 282 282 282 282 283 283 283 284 284 284 284 284 284 284 285 285 286 287 288 290 290 290 291 292 294 295 295 296 296 296 296 295 296 296 297
281 281 282 282 282 282 282 282 282 282 283 283 283 284 284 284 284 284 285 285 285 286 287 288 288 288 290 291 293 294 294 295 295 295 294 295 297 299
281 281 281 281 282 282 282 283 283 283 283 284 284 284 284 284 284 284 285 285 285 285 285 286 287 287 288 289 290 292 292 293 294 293 294 295 297 299
281 281 281 281 282 282 282 283 283 283 283 283 284 284 284 284 284 285 285 285 285 284 286 286 286 287 288 290 290 292 292 292 293 292 292 293 295 297
281 281 282 282 282 283 283 283 284 283 283 283 283 284 284 284 284 284 285 286 286 286 286 286 286 287 287 289 290 291 290 291 291 291 292 292 292 294
281 282 281 281 281 281 281 282 283 283 283 283 284 284 284 284 284 284 285 285 286 286 286 286 287 287 286 285 286 289 289 289 290 290 291 290 289 291
282 280 280 280 279 279 280 280 281 282 283 283 283 284 284 284 284 284 285 285 286 286 286 286 286 286 287 287 286 288 288 288 288 290 290 288 288 290
281 281 278 278 278 278 279 279 280 280 281 282 283 283 283 283 284 285 285 285 285 286 286 286 286 286 286 286 286 286 286 287 286 287 288 286 286 287
280 279 279 277 277 277 277 278 278 279 280 281 283 284 283 283 283 284 284 285 285 285 285 285 286 286 286 287 285 286 286 286 285 285 285 284 284 284
279 278 277 276 276 276 276 276 277 278 278 280 283 283 283 283 282 283 284 285 285 285 284 284 284 284 283 282 284 285 284 284 282 283 283 283 281 282
277 276 276 275 276 276 276 275 275 277 278 278 281 283 284 284 283 284 284 285 285 284 282 282 282 283 283 281 279 280 282 282 281 281 282 283 280 280
274 275 274 274 274 275 275 275 275 276 277 277 278 279 282 283 283 283 284 283 282 281 281 281 282 282 282 282 279 279 280 281 281 280 280 280 280 280
272 273 273 273 273 274 275 276 275 276 276 276 277 278 279 281 281 281 281 281 281 280 280 279 279 281 281 279 277 277 279 280 280 281 280 279 278 278
271 271 272 272 273 274 274 275 275 275 276 276 276 277 277 278 279 280 280 280 279 279 277 277 278 279 279 277 274 274 275 277 278 278 279 279 279 277
270 271 271 272 273 273 274 275 275 275 275 276 276 276 277 277 277 277 278 278 278 277 277 277 277 277 276 275 274 273 274 275 276 277 278 278 279 280

GFSNE_925_thetae_006.txt.gz
Theta_e
291 292 292 291 291 291 291 292 293 292 292 291 291 292 293 293 293 295 295 293 294 296 298 301 300 299 297 297 298 299 299 299 302 313 316 321 319 317
292 292 291 290 289 288 289 289 290 292 292 291 291 291 292 292 292 293 292 292 294 294 296 296 297 298 296 297 298 296 296 299 299 302 312 315 319 317
290 289 288 288 288 288 288 289 289 290 291 290 291 291 291 291 292 291 291 292 292 293 293 293 294 294 294 295 299 295 295 295 298 299 301 313 316 319
288 288 288 288 288 288 288 288 288 289 289 289 290 291 292 292 292 293 292 291 291 291 291 291 291 292 293 293 295 298 296 295 294 298 298 301 311 315
287 287 287 286 286 286 286 286 286 286 287 287 287 287 288 288 288 289 290 290 291 291 290 290 289 289 290 292 292 295 297 296 295 297 298 298 299 309
286 285 284 284 283 283 283 284 284 284 285 285 286 286 286 287 287 287 287 288 288 287 288 288 287 287 288 289 291 294 297 297 297 298 298 297 297 299
285 284 283 282 283 283 284 284 284 284 284 285 285 285 285 285 285 286 286 286 286 287 287 287 287 289 288 289 292 294 298 297 296 296 296 296 297 298
283 282 282 282 282 282 282 283 283 283 283 283 283 284 283 283 284 284 284 284 285 285 286 287 288 288 289 291 294 295 296 296 296 296 296 297 297 297
281 281 281 281 281 281 282 282 282 282 283 283 284 284 284 283 283 283 284 284 284 284 285 287 288 289 290 291 291 293 294 295 295 296 296 295 296 296
281 281 281 281 281 281 282 282 282 282 282 282 282 282 283 283 283 283 284 284 284 284 285 286 286 287 287 287 287 289 291 293 294 294 294 295 295 295
281 280 280 281 281 282 282 282 282 282 282 283 283 283 283 283 283 283 283 284 284 284 284 284 285 285 286 286 286 287 290 290 291 293 293 293 293 294
280 280 280 281 282 282 282 282 282 283 283 283 283 283 283 283 284 284 284 285 284 284 285 284 285 285 286 287 287 287 288 289 291 292 291 292 292 292
281 281 281 282 281 281 281 281 281 282 283 283 283 283 283 283 284 284 284 284 285 285 285 285 285 285 285 286 286 287 289 289 291 290 290 290 291 292
281 281 281 280 280 280 279 280 280 281 281 282 283 283 283 283 283 284 284 284 284 284 285 285 285 285 284 285 284 287 288 289 288 288 289 290 291 291
281 281 280 279 278 278 278 279 279 279 280 281 283 283 283 283 284 284 284 284 284 284 285 285 286 286 286 286 286 286 288 287 287 287 287 289 289 290
280 279 278 277 277 277 277 277 278 278 279 280 281 282 283 283 283 284 284 284 284 285 285 285 285 285 285 285 286 286 286 286 286 286 287 287 287 287
279 278 277 276 276 276 276 276 277 277 277 278 280 282 283 283 283 283 284 284 284 285 285 286 286 285 286 286 284 285 286 285 286 286 286 285 285 285
277 276 276 275 274 275 275 275 275 275 276 277 279 281 282 283 282 282 283 284 284 284 284 284 284 284 283 283 284 285 284 284 285 285 284 283 283 283
275 275 274 274 274 274 274 274 274 274 275 276 277 279 280 283 283 283 283 284 284 285 284 283 282 283 284 284 280 282 282 282 283 282 283 282 281 281
273 273 272 272 273 273 273 273 274 274 275 275 276 277 279 280 280 281 282 283 282 281 280 281 282 282 283 283 281 279 280 281 281 281 280 280 279 279
271 271 271 271 272 272 273 274 274 274 274 275 275 276 277 279 280 279 280 281 281 280 279 278 279 280 281 280 278 277 279 280 280 280 279 279 278 279
270 270 271 271 271 272 273 273 274 273 274 274 275 276 276 277 277 278 278 278 278 278 277 277 278 279 279 278 276 275 276 277 278 279 279 279 279 280
269 270 271 271 272 272 273 273 273 273 273 274 275 275 276 276 276 277 277 277 277 277 277 277 277 276 275 275 275 275 275 276 277 278 278 279 279 279

GFSNE_925_thetae_012.txt.gz
Theta_e
293 293 293 293 293 293 293 293 293 294 296 296 297 297 296 295 295 294 295 295 296 295 294 294 296 299 301 300 298 297 298 298 298 299 300 300 303 306
294 294 294 293 293 293 292 292 292 292 293 292 292 292 292 293 293 292 293 293 293 294 293 294 294 295 295 295 294 295 296 299 297 297 296 296 298 301
292 291 291 290 291 291 291 291 291 291 292 291 291 291 292 292 292 292 292 292 293 294 293 293 292 292 292 293 295 296 294 295 297 295 296 295 295 297
290 290 290 289 289 289 290 290 290 290 291 291 291 291 291 291 292 292 292 292 292 293 293 293 293 291 291 290 290 294 296 294 293 296 297 296 295 295
290 289 289 289 289 288 288 288 288 288 288 289 289 289 290 290 290 290 291 291 291 291 291 292 292 291 290 289 289 289 290 293 293 293 293 296 296 295
288 288 288 287 287 287 287 286 286 287 287 288 288 288 289 289 289 289 290 290 290 290 290 290 290 290 290 290 289 289 288 289 290 292 292 293 296 296
287 287 287 286 285 284 284 284 285 286 287 288 288 288 288 289 289 289 289 289 290 290 290 291 290 290 290 289 289 288 288 287 287 288 290 291 295 296
286 286 285 285 284 284 283 283 283 284 285 286 286 287 287 287 288 288 288 288 289 288 289 289 289 289 290 290 290 290 290 291 290 288 288 290 295 297
285 284 284 284 284 284 284 283 283 283 283 283 284 285 285 285 286 286 287 287 287 287 288 288 288 289 289 289 289 290 290 290 289 289 291 293 295 297
284 283 283 284 284 283 283 283 283 284 284 284 284 284 284 284 284 285 286 286 287 287 286 288 287 288 287 288 288 288 290 290 289 288 291 293 294 295
282 282 282 283 283 283 283 283 284 284 284 284 284 283 283 283 283 284 286 286 287 286 286 287 287 287 287 287 288 287 288 288 288 287 288 290 291 293
282 282 283 283 283 282 283 283 283 283 283 284 283 284 285 284 284 284 285 286 286 287 286 287 287 287 288 288 288 288 289 288 286 286 287 288 289 290
281 282 283 283 282 281 280 281 281 281 281 282 283 283 284 285 286 286 286 285 286 286 286 286 288 287 288 288 289 289 289 289 289 289 287 287 290 290
281 282 283 280 280 280 279 280 279 279 281 283 284 284 285 285 286 286 286 286 286 286 286 286 287 287 287 288 289 289 290 289 288 289 290 291 290 289
281 281 280 279 279 279 279 279 279 281 282 283 284 285 286 286 286 286 286 286 286 286 286 287 286 286 287 288 288 289 290 290 289 289 289 290 290 292
279 281 279 278 279 279 280 280 281 281 281 282 283 284 285 286 286 286 286 287 286 286 286 285 285 286 286 286 287 288 288 289 289 288 288 289 289 289
278 279 279 279 280 280 280 279 280 280 281 281 282 283 284 286 287 286 286 286 287 287 287 287 285 285 286 286 287 289 288 289 289 289 288 289 289 290
278 278 278 277 278 279 279 279 279 279 279 280 282 283 283 285 286 286 285 286 287 288 287 288 288 287 286 286 285 287 287 289 289 289 288 288 289 290
277 277 277 277 277 278 278 278 278 278 279 280 281 281 282 284 286 287 286 286 287 287 287 288 288 287 289 289 285 283 285 287 288 289 288 287 288 289
275 275 275 275 276 276 277 277 277 278 278 279 279 280 281 282 283 284 285 286 287 287 286 286 286 287 288 289 289 283 280 282 285 286 287 286 285 285
274 274 274 274 275 275 276 276 277 277 277 278 278 279 279 281 282 283 284 284 285 286 285 285 282 281 283 284 285 284 281 280 281 283 285 286 286 286
273 273 273 274 274 274 275 275 276 276 277 277 278 278 279 280 281 281 281 282 283 283 283 282 282 282 283 283 286 283 282 280 280 280 281 281 283 287
271 272 272 273 273 273 273 274 275 275 276 276 277 278 279 279 280 280 280 281 281 282 282 282 282 282 282 282 283 282 281 281 281 282 281 279 280 280

GFSNE_925_thetae_015.txt.gz
Theta_e
295 295 294 294 294 293 293 293 294 296 296 295 295 297 299 299 298 297 297 297 296 294 295 294 295 296 301 304 305 303 300 299 299 299 301 302 300 302
296 296 295 295 295 294 294 293 294 293 294 293 293 293 294 294 294 295 295 294 294 295 295 295 294 294 296 299 300 298 296 295 297 298 297 298 298 296
293 293 293 292 292 291 291 292 293 292 293 292 292 293 293 293 293 293 294 294 294 293 293 293 293 293 294 294 295 295 295 295 294 296 298 296 296 297
293 293 292 292 291 291 291 291 291 291 292 293 292 292 292 292 292 293 293 293 293 294 293 294 293 293 292 292 292 291 291 292 295 296 294 294 295 296
291 290 290 290 290 290 290 290 290 290 290 290 291 290 291 291 291 291 292 292 292 293 293 292 293 293 293 293 292 292 290 289 289 291 294 295 293 293
289 289 289 289 289 289 289 288 288 288 288 289 289 290 290 290 290 291 291 291 292 292 292 292 292 292 292 291 291 290 290 289 288 289 289 291 293 293
287 288 288 288 287 286 286 286 286 286 287 288 289 290 290 290 291 291 291 291 291 291 291 292 292 292 291 291 290 290 289 289 289 289 288 288 289 291
286 286 287 287 287 286 285 284 284 284 285 286 287 288 288 288 288 289 289 290 291 289 289 290 290 291 291 291 291 291 291 291 291 290 289 288 288 288
285 286 286 286 286 285 286 285 285 284 284 284 284 285 286 286 286 287 287 288 288 289 288 289 289 290 290 290 290 290 290 289 290 290 290 290 290 289
284 285 285 285 285 284 284 284 284 284 285 285 284 285 285 285 285 286 286 286 287 287 288 289 288 289 289 289 289 288 288 288 288 289 290 290 290 290
282 283 283 283 283 283 283 284 284 284 285 285 284 284 284 284 284 284 285 286 288 287 287 287 288 288 288 288 288 288 288 287 288 288 289 289 288 289
281 282 282 283 283 283 284 284 284 284 283 284 284 284 284 285 284 285 284 285 286 287 286 287 288 288 289 289 289 289 289 288 287 287 288 288 288 287
281 282 283 282 281 281 281 281 282 282 281 282 282 283 284 284 285 286 286 285 286 286 286 287 288 288 288 289 289 289 289 290 289 290 289 287 286 287
281 281 283 281 280 280 280 280 280 279 281 282 284 285 286 286 286 286 287 287 287 287 287 286 287 288 288 289 289 289 289 289 290 289 288 290 289 287
280 280 280 280 280 280 281 280 280 281 283 283 284 285 286 286 286 287 287 287 287 287 286 287 286 287 288 288 288 289 290 290 290 289 289 289 290 288
278 279 280 280 280 281 282 282 282 282 282 283 284 284 285 286 287 288 287 287 287 287 286 286 286 287 287 287 287 288 288 289 289 289 288 289 289 291
277 280 280 279 279 281 281 281 282 281 282 282 283 284 285 285 287 288 287 287 288 288 288 287 286 285 286 286 287 288 288 288 289 289 289 289 289 289
279 279 279 278 279 279 280 280 280 280 280 281 282 283 284 284 286 287 287 287 287 288 289 288 288 287 286 286 285 287 287 288 288 289 289 289 289 290
277 278 277 277 277 278 278 278 279 279 280 280 281 282 282 283 285 286 287 288 288 288 289 289 288 288 289 290 284 285 285 287 287 287 289 289 288 288
276 276 276 276 277 277 277 277 278 279 279 280 280 281 281 283 284 284 286 285 286 288 288 287 287 286 287 287 287 282 282 282 284 287 287 288 287 287
275 275 275 275 276 276 276 277 278 278 278 279 279 280 280 282 283 283 283 284 285 285 286 285 283 282 284 284 286 285 281 281 281 282 284 287 287 286
274 274 274 275 275 275 275 276 277 277 277 277 278 280 280 281 281 282 282 283 283 284 284 284 283 283 284 284 285 284 284 282 281 280 281 281 282 286
273 273 274 274 274 274 274 274 275 276 276 276 277 278 279 280 281 281 281 282 282 282 283 283 283 283 283 283 283 284 282 282 282 283 282 280 280 281

GFSNE_925_thetae_021.txt.gz
Theta_e
294 294 295 294 293 293 293 294 293 293 291 292 293 293 293 293 293 294 294 297 297 297 297 295 295 293 294 294 296 302 308 309 310 308 306 303 303 304
293 294 293 292 291 292 293 293 293 293 292 293 293 293 293 293 293 293 292 293 293 296 296 296 295 295 295 294 294 296 304 306 305 304 302 301 300 300
291 289 289 290 292 291 291 291 291 292 293 292 292 291 290 291 291 292 293 292 293 293 294 294 294 293 293 293 293 293 295 299 297 297 297 297 298 298
287 286 286 286 287 288 289 289 289 289 289 288 288 288 288 288 289 289 289 291 292 293 293 294 294 294 294 293 293 293 293 295 294 294 293 293 294 294
286 285 285 285 285 286 287 288 289 288 288 287 286 286 286 287 287 288 289 289 289 289 290 291 292 292 292 293 293 293 293 292 292 292 291 291 291 291
284 284 284 284 284 285 286 287 287 287 287 286 285 285 286 286 287 288 288 288 289 290 290 291 291 291 292 293 293 293 293 293 292 292 292 291 291 291
282 282 282 283 285 285 286 286 286 286 286 285 285 285 284 285 285 285 285 286 287 287 288 289 290 290 290 291 292 293 293 293 293 292 291 290 290 290
281 281 281 282 283 283 284 284 284 285 286 284 284 283 284 284 284 284 284 285 284 286 288 288 288 289 289 289 289 290 291 292 291 291 291 291 291 290
281 281 280 280 281 281 282 283 283 283 283 284 284 284 284 284 284 284 284 284 285 286 286 286 286 287 287 288 288 289 290 290 290 290 290 290 290 290
281 281 280 281 281 281 282 283 283 283 283 283 284 284 284 284 284 284 284 285 286 285 285 285 286 285 285 286 286 287 288 288 288 288 288 288 288 288
280 280 280 280 281 282 281 281 281 282 283 284 284 284 284 283 284 285 284 284 284 283 284 284 284 285 285 286 286 286 286 286 287 287 287 287 287 287
279 279 279 280 281 281 282 281 280 280 280 281 281 281 281 281 281 282 283 284 284 284 284 283 284 285 286 285 286 287 287 287 287 287 287 288 288 288
278 278 278 279 279 281 281 281 280 280 281 280 280 280 281 282 283 284 284 284 284 284 284 284 284 285 286 286 286 286 287 288 288 289 289 289 289 289
277 277 278 279 280 280 280 281 281 281 281 281 280 281 282 284 284 284 285 285 285 285 285 285 284 285 285 285 285 286 287 288 288 289 288 289 289 289
277 277 278 278 278 279 280 280 281 281 281 282 282 282 283 284 285 285 285 286 286 286 287 286 286 286 286 286 286 287 287 287 287 287 288 288 289 289
277 278 277 277 278 278 278 278 279 279 279 280 281 282 282 282 283 284 285 287 287 287 287 287 287 287 286 286 286 286 286 286 286 287 287 287 287 288
277 277 276 276 277 277 277 278 278 278 279 279 280 281 281 281 283 284 286 287 287 287 287 287 287 286 286 286 286 286 286 286 286 287 287 287 287 288
276 276 276 276 276 276 276 277 277 278 278 278 279 280 280 281 282 283 284 284 285 286 288 288 288 287 286 286 286 286 285 286 286 286 287 286 286 287
275 275 275 275 275 275 275 276 276 277 277 277 278 278 280 281 281 282 282 283 283 285 283 283 284 286 286 286 284 284 284 285 285 285 285 285 286 287
274 274 274 274 274 274 274 274 275 275 275 275 276 277 278 280 281 281 282 282 282 284 283 282 282 283 282 281 283 283 283 282 281 282 282 284 285 286
273 273 273 273 273 273 273 273 273 273 273 274 274 275 276 278 279 280 281 281 281 281 281 282 283 282 283 284 282 282 282 281 281 281 281 282 283 285
273 272 272 272 272 272 272 272 271 271 271 272 273 274 275 276 277 279 279 280 279 279 279 281 282 283 282 282 282 282 282 281 282 282 281 280 281 280
273 273 272 272 271 271 271 271 271 270 269 270 272 273 274 274 276 276 278 278 278 278 278 279 281 282 283 283 282 283 282 282 281 282 282 281 280 280

GFSNE_925_thetae_024.txt.gz
Theta_e
292 292 292 292 292 292 291 291 291 292 292 291 292 292 291 292 293 293 293 293 295 297 296 295 295 294 293 293 294 295 299 305 306 310 310 308 306 304
292 289 287 286 286 288 290 291 291 291 292 291 291 291 289 289 290 291 293 292 292 292 293 296 296 294 295 295 295 294 296 304 307 307 306 304 302 301
288 287 287 286 285 285 285 286 288 290 291 290 289 289 289 289 288 288 289 290 292 291 292 292 293 294 294 293 293 293 294 294 298 302 301 300 300 299
286 285 285 285 284 284 284 285 286 287 288 287 288 287 287 287 287 287 287 288 289 291 290 291 292 293 294 293 293 293 293 293 293 295 296 295 294 294
285 284 283 282 282 283 284 285 285 286 287 287 286 286 286 285 285 286 287 288 288 289 290 290 291 292 292 292 292 293 293 293 293 294 293 292 292 292
284 283 281 281 282 283 284 285 285 285 285 285 285 285 285 285 284 284 285 285 286 287 287 289 290 291 291 291 292 292 293 293 293 292 292 292 292 291
283 282 281 281 281 282 283 283 284 284 284 285 284 284 284 284 284 284 283 283 283 284 286 288 288 289 289 290 291 292 292 293 293 293 292 292 292 291
283 282 281 281 280 281 281 282 282 283 283 284 284 283 283 283 284 283 283 283 283 284 286 285 285 286 287 288 289 289 290 291 292 292 292 291 291 291
282 281 281 280 280 280 280 281 282 282 283 283 284 284 283 283 283 284 283 283 283 284 285 285 285 285 285 285 286 287 288 289 290 290 290 290 290 290
280 279 279 279 279 280 281 282 281 281 282 283 283 283 283 283 284 284 284 284 284 284 285 284 284 284 284 285 285 285 286 287 288 288 289 289 288 288
278 278 279 279 279 280 280 281 281 281 280 281 282 283 283 283 284 284 284 284 283 283 283 283 283 284 284 283 284 284 285 285 286 286 286 286 286 286
278 277 278 278 279 280 281 281 280 280 280 280 280 280 280 280 280 281 281 282 282 282 282 283 283 283 284 284 284 284 286 287 287 286 287 287 287 287
277 277 278 278 280 280 280 280 280 281 281 281 280 280 281 282 282 283 283 282 282 282 283 283 283 283 283 284 284 285 285 286 287 288 288 288 288 288
277 277 278 279 279 279 279 280 280 281 281 281 281 281 282 283 283 283 284 284 284 284 284 284 284 284 284 284 285 285 286 286 287 288 288 288 288 288
277 278 277 277 277 278 278 279 279 279 279 280 280 281 282 282 283 284 285 285 285 286 286 285 285 284 285 285 285 286 287 287 288 287 286 287 287 288
276 276 276 276 276 276 277 277 278 278 278 279 280 280 281 282 283 283 285 286 286 286 287 287 286 285 286 286 286 286 285 286 286 286 286 286 287 287
275 275 275 275 275 276 276 276 276 277 277 278 279 279 280 281 282 283 284 284 285 286 287 287 287 287 286 285 286 286 286 285 285 285 286 286 286 286
274 275 274 274 274 275 275 275 275 276 276 276 277 277 278 280 281 282 282 283 283 284 284 286 287 286 285 285 285 285 285 284 285 285 286 285 285 286
273 274 274 274 273 273 273 273 274 274 274 275 275 276 277 279 280 281 281 282 283 283 282 283 284 285 286 284 284 283 282 284 285 285 285 284 284 285
273 273 273 273 272 272 272 272 272 272 272 273 274 275 276 277 278 279 280 280 281 282 281 283 283 282 282 279 282 283 282 281 281 281 281 282 283 284
273 272 272 272 271 271 271 271 270 269 270 272 273 274 275 275 276 277 278 279 278 278 279 280 282 283 282 283 281 282 283 281 281 281 280 281 282 283
274 273 272 271 271 270 271 270 270 269 269 271 272 273 273 274 275 276 276 277 277 277 278 280 282 282 282 282 281 282 282 281 281 281 281 280 280 278
274 273 273 271 271 270 270 269 269 268 268 269 271 272 272 272 274 274 276 275 276 276 277 278 280 281 281 281 282 282 282 282 281 282 282 281 280 280

GFSNE_925_thetae_027.txt.gz
Theta_e
291 292 290 287 287 286 286 289 290 290 290 291 291 290 290 289 289 291 291 292 292 292 293 295 296 295 296 295 294 295 296 297 298 305 310 310 308 306
290 288 287 286 286 286 285 285 285 289 289 290 290 290 290 289 289 289 288 289 290 291 291 292 293 294 295 295 295 294 295 302 305 305 309 306 306 303
287 286 286 286 285 285 284 284 284 285 286 287 288 288 289 288 288 288 287 287 288 290 291 291 290 292 293 294 295 294 294 294 303 305 306 304 303 302
286 285 285 284 283 282 282 283 283 284 284 285 286 288 287 287 287 286 286 286 287 288 289 290 290 290 292 293 293 294 293 293 294 298 301 301 299 298
285 284 283 282 281 281 281 282 283 284 285 284 285 285 286 286 285 285 284 285 286 287 288 289 290 290 291 291 293 293 294 293 293 294 295 294 294 294
284 283 283 281 281 281 281 281 283 282 284 284 284 284 284 285 284 284 284 284 283 284 285 287 289 290 291 292 292 292 292 294 293 293 293 292 291 291
284 283 282 282 282 281 281 281 281 282 282 283 283 283 283 284 284 284 283 283 283 283 284 285 287 287 288 289 291 292 292 292 293 293 292 292 292 292
283 282 281 280 280 280 280 280 281 281 282 282 283 283 283 283 283 284 283 282 282 284 284 285 285 285 285 286 287 289 290 292 292 293 293 292 292 292
280 279 279 279 279 279 279 280 280 281 282 282 282 282 283 283 283 283 283 282 283 283 283 284 284 285 285 285 285 286 287 288 289 290 291 291 291 291
277 278 278 278 278 279 280 281 280 280 281 281 281 282 282 283 283 283 283 283 283 283 283 284 284 284 284 284 284 284 285 286 287 288 290 290 290 289
277 277 278 278 278 280 280 281 280 281 281 281 281 281 281 282 282 283 283 283 283 283 284 283 283 283 283 283 283 283 284 285 285 286 288 288 288 287
277 277 278 278 280 280 280 280 280 280 280 280 281 281 280 280 280 280 281 282 282 281 282 282 282 283 282 284 284 283 283 284 284 285 285 285 286 286
277 277 278 279 279 279 279 279 280 280 281 281 281 281 281 281 281 282 281 280 280 281 281 282 283 283 283 283 284 284 285 286 286 286 287 286 286 287
277 277 277 278 278 278 278 278 278 279 279 280 280 281 281 282 282 283 283 283 283 283 283 283 283 283 283 283 284 285 285 285 286 286 287 287 288 288
276 277 276 276 276 276 277 277 277 278 278 279 279 280 280 281 282 283 284 284 284 284 284 284 283 284 284 284 284 285 285 287 286 287 287 287 287 287
275 275 275 275 275 275 275 276 276 277 277 277 278 279 280 280 282 282 283 285 285 285 286 285 284 284 284 284 284 284 285 285 286 286 286 286 286 286
274 274 274 274 273 274 274 274 274 275 275 275 276 277 278 280 281 282 283 283 284 284 285 286 285 285 284 285 285 285 285 285 285 285 285 285 285 285
273 273 273 273 273 273 273 273 273 273 273 274 275 275 276 278 279 281 282 282 282 282 282 284 285 284 284 284 284 285 285 285 285 285 285 285 285 285
272 272 272 272 272 272 272 271 271 270 272 273 274 274 275 277 278 279 279 280 281 281 282 282 283 284 285 285 283 283 282 283 284 284 284 284 284 284
273 272 272 272 271 271 271 271 270 269 270 272 273 274 274 275 276 277 278 278 278 279 280 282 282 282 281 277 281 283 282 281 281 281 281 281 282 283
273 273 272 271 271 270 271 270 269 268 269 271 272 272 273 274 274 275 276 277 277 277 278 279 281 282 282 282 279 282 282 281 281 281 280 280 281 282
274 273 273 271 271 270 270 269 269 268 268 269 271 272 272 273 273 274 275 275 275 276 276 279 281 282 282 282 281 281 282 281 281 281 281 280 280 276
275 274 273 272 271 271 270 270 269 268 268 268 270 271 271 271 273 273 274 274 274 275 276 278 279 280 280 280 280 281 282 282 281 281 281 281 280 280

GFSNE_925_thetae_030.txt.gz
Theta_e
290 290 290 289 286 286 286 285 287 286 286 286 288 289 290 289 289 289 289 288 289 290 290 290 292 296 295 298 296 296 297 298 299 306 311 311 310 308
289 288 288 286 286 286 285 284 283 285 285 285 286 287 288 288 289 288 288 288 287 288 290 291 290 292 294 294 296 296 295 297 302 298 308 310 309 307
287 286 286 285 285 284 283 281 281 282 283 284 284 284 285 286 288 288 287 287 287 286 288 289 291 290 292 293 294 294 295 295 301 304 305 308 306 304
286 285 285 284 283 282 281 281 281 281 282 283 284 284 285 286 286 286 286 286 285 286 287 288 289 290 290 291 292 293 293 294 295 303 305 305 304 304
285 284 283 283 282 282 281 281 281 281 282 283 284 284 284 285 285 285 285 285 284 284 285 287 288 290 290 290 290 292 292 294 294 295 300 301 301 300
284 284 283 283 282 282 282 281 281 281 281 281 282 283 283 284 284 284 284 284 284 283 283 284 287 288 290 290 290 291 292 293 294 294 295 295 295 295
283 283 282 281 282 281 281 280 280 280 281 281 281 282 283 283 283 283 283 283 283 283 283 283 285 287 287 289 292 292 291 292 293 293 292 291 291 291
280 279 278 278 279 279 279 279 280 280 281 281 281 281 282 282 282 282 282 282 283 283 283 284 285 285 285 285 286 289 292 292 292 292 293 292 291 292
278 277 277 278 278 278 278 279 279 280 281 280 282 281 282 282 282 282 282 282 282 283 283 283 283 284 284 285 285 285 287 289 291 292 293 293 292 292
277 277 277 278 278 279 280 281 280 280 280 280 281 281 281 281 281 282 282 282 282 282 282 283 283 283 283 283 284 284 285 285 287 289 290 291 291 291
277 277 278 278 278 280 280 280 280 280 280 281 281 281 281 281 281 282 282 282 283 282 283 283 283 283 283 282 282 283 284 284 285 286 288 289 290 290
277 277 277 278 279 279 279 278 279 280 280 280 281 281 281 281 281 280 281 281 282 281 282 282 282 282 282 283 283 283 283 283 284 285 285 287 288 289
277 276 277 277 278 278 278 278 279 278 278 279 280 280 281 281 281 281 281 280 280 281 281 282 282 282 282 283 283 284 284 283 283 284 285 285 285 286
276 275 276 277 277 277 277 277 277 277 277 278 278 279 280 280 281 282 282 282 282 281 281 282 282 282 282 282 283 284 284 285 285 285 286 287 287 286
275 275 275 275 275 275 275 276 276 276 276 276 277 278 278 280 281 282 283 283 283 283 283 283 283 282 283 283 284 284 285 286 286 286 286 287 287 287
274 274 274 274 273 273 273 274 274 274 274 275 275 276 278 279 281 281 282 284 284 284 284 284 284 284 283 284 284 284 284 285 285 285 286 286 286 286
273 273 273 273 272 272 272 272 272 272 273 274 274 275 276 278 279 281 282 282 282 283 284 284 284 284 284 285 284 284 284 285 285 285 285 285 285 285
273 272 272 272 271 271 271 271 270 270 271 272 273 274 274 276 277 279 280 280 281 281 281 282 284 284 284 284 284 284 285 284 285 284 284 284 285 285
273 272 272 272 271 271 271 270 270 269 270 272 272 273 274 275 276 277 277 277 278 279 280 282 282 284 286 286 283 283 283 283 283 283 284 284 284 284
274 273 272 271 271 270 270 270 269 268 269 271 272 272 273 274 274 274 275 276 276 277 278 280 281 281 281 282 281 282 282 281 281 281 281 281 281 282
274 274 273 272 271 270 270 269 269 268 268 269 271 271 272 272 273 273 274 275 275 275 276 277 279 280 281 281 280 281 282 281 281 281 281 280 280 282
275 274 274 273 272 271 270 270 269 269 268 268 270 271 271 271 272 272 273 273 273 274 274 277 279 281 281 281 280 280 281 281 281 281 281 281 280 281
277 275 274 273 273 271 270 270 270 269 268 268 269 270 270 270 271 272 273 273 273 273 274 276 277 279 280 279 279 279 280 281 281 280 281 281 280 280

GFSNE_925_thetae_033.txt.gz
Theta_e
292 291 291 290 289 288 287 287 287 289 289 287 287 287 287 288 289 288 290 289 288 288 288 288 289 289 290 296 297 297 299 300 303 309 310 312 312 312
290 290 289 288 287 287 287 286 285 285 288 285 285 285 285 286 286 287 288 288 288 287 287 287 288 290 289 292 295 296 296 296 300 302 307 310 311 309
288 288 287 287 286 286 285 284 284 284 284 284 283 284 284 285 285 286 287 288 288 287 286 287 288 289 290 290 294 294 296 296 296 299 304 308 310 308
287 286 286 286 285 285 284 284 283 283 283 283 283 283 284 284 285 286 287 287 287 287 285 285 286 288 289 290 291 294 293 295 295 300 304 305 308 307
286 286 285 284 284 284 283 283 282 282 282 282 282 282 282 283 284 285 286 286 286 286 285 284 284 286 288 290 290 292 293 293 295 295 298 305 306 306
285 284 283 283 282 282 282 282 282 282 281 281 281 282 282 282 283 284 285 286 286 286 285 284 284 285 288 290 290 291 292 292 294 294 296 297 301 304
282 281 280 280 280 280 280 280 280 280 280 281 281 281 282 282 282 283 284 284 285 285 285 285 286 286 288 288 290 292 291 292 293 294 294 294 294 294
280 280 279 279 279 279 279 279 279 280 281 281 281 282 282 282 282 283 283 283 285 285 285 285 285 286 287 287 286 287 292 292 292 293 292 291 291 291
279 279 279 279 279 279 279 280 281 281 281 281 282 281 281 282 282 282 283 283 283 283 284 284 285 285 285 286 286 285 286 289 292 292 292 292 291 290
279 279 279 279 279 279 280 280 280 280 281 281 282 282 282 282 282 282 282 283 283 283 283 283 284 285 285 285 284 286 285 286 288 291 292 292 292 292
279 279 278 278 278 279 279 280 279 279 280 280 280 281 281 281 281 282 282 283 284 284 283 283 284 284 285 285 285 283 284 286 285 287 290 291 293 292
279 278 278 277 278 278 278 279 279 279 279 279 280 281 282 282 281 281 282 282 283 285 283 284 284 284 285 285 284 285 284 283 286 286 286 289 290 291
278 277 277 277 277 277 277 278 278 277 278 279 279 280 281 281 282 283 282 282 282 283 283 282 283 284 284 285 285 285 285 285 284 285 285 286 288 289
278 276 276 276 276 275 276 276 276 276 277 278 279 280 280 281 281 282 282 282 282 283 283 282 283 284 284 285 285 286 286 286 285 285 286 286 285 285
277 275 274 274 274 275 274 275 275 275 276 277 278 278 279 279 280 282 282 283 283 283 282 282 283 284 284 285 286 286 286 286 286 287 286 287 287 288
276 274 273 273 273 274 274 274 274 273 274 275 276 277 278 279 281 281 283 284 285 285 284 284 283 283 285 285 285 285 286 287 286 286 287 287 287 288
275 274 274 273 273 274 274 273 272 272 273 274 275 276 277 278 280 281 282 283 284 284 285 284 284 284 284 285 286 286 286 286 286 286 286 287 286 287
275 275 274 273 273 273 273 273 272 271 271 273 274 275 276 277 278 280 280 281 282 283 283 283 285 285 285 284 285 286 286 286 286 285 286 286 287 287
276 275 274 273 273 273 272 272 272 271 270 271 273 273 274 275 277 278 279 279 280 281 282 282 284 286 288 288 284 283 285 284 284 285 285 285 286 286
276 275 275 274 273 273 272 271 271 270 270 270 271 272 272 274 276 276 277 277 278 279 280 281 282 282 284 285 285 283 282 282 283 284 284 283 283 283
277 276 275 274 274 273 272 271 270 270 269 269 270 271 271 272 274 274 275 275 275 277 278 279 280 280 280 281 283 283 282 281 281 282 282 283 284 284
278 277 276 275 274 273 272 271 271 271 270 270 269 270 270 271 272 273 274 275 275 275 276 277 279 280 281 282 283 282 283 281 281 281 281 281 283 285
278 277 276 275 274 273 272 272 271 271 270 269 269 270 270 271 271 272 273 273 273 274 275 276 278 279 280 281 281 282 281 282 281 282 281 281 280 280

GFSNE_925_thetae_036.txt.gz
Theta_e
294 294 292 291 291 290 290 290 289 291 291 289 288 288 287 287 287 287 288 288 288 290 288 288 287 288 288 291 291 294 296 298 298 302 311 312 313 311
293 292 291 290 290 289 289 289 288 288 291 287 287 287 287 286 286 287 287 287 287 288 289 288 287 287 287 288 290 291 294 296 297 297 304 309 312 311
292 291 290 290 289 288 288 288 287 287 288 287 286 286 286 286 286 286 287 287 288 289 289 287 286 286 287 287 289 290 292 295 296 297 298 302 308 311
291 290 289 289 288 288 287 287 286 286 285 285 285 285 285 284 285 285 285 286 287 288 288 287 286 285 285 286 287 289 291 294 295 297 298 298 301 309
289 288 288 287 286 286 285 285 285 284 284 284 284 284 283 284 284 285 285 285 286 287 287 287 286 285 285 285 287 289 290 292 294 295 296 299 301 302
287 286 285 284 284 283 283 283 283 283 283 283 283 283 283 283 284 284 285 285 286 287 287 287 286 286 285 285 288 290 291 291 293 293 295 297 299 301
285 284 283 282 280 280 281 281 281 282 282 282 283 283 283 284 284 284 284 284 284 285 286 287 287 287 288 288 289 290 292 291 292 292 294 295 294 299
284 283 283 282 282 280 281 280 280 281 282 282 283 283 283 284 283 284 284 285 286 285 285 286 287 287 287 288 288 288 288 290 291 292 293 292 293 292
283 282 282 282 281 281 280 280 282 281 281 281 282 282 284 283 283 283 283 284 284 285 285 286 286 286 287 287 287 287 286 287 291 292 292 292 292 291
282 282 282 281 281 279 280 280 281 281 281 281 281 281 282 282 283 283 283 283 283 284 284 285 284 285 286 287 286 286 286 287 286 291 292 292 291 291
282 282 281 280 279 278 279 280 280 280 281 280 280 280 281 281 282 282 283 283 284 284 285 285 285 285 286 286 287 286 284 287 286 287 290 292 292 291
282 281 280 278 277 278 278 279 280 280 279 279 280 281 281 282 282 283 283 284 284 284 284 285 285 285 286 286 286 287 286 284 287 286 286 290 292 292
281 281 280 278 277 277 276 278 278 277 278 279 280 280 281 282 282 283 284 284 284 284 284 284 284 284 285 286 287 287 287 287 287 286 287 286 290 292
280 280 279 276 276 275 276 275 276 276 278 279 280 280 281 281 282 283 283 284 284 284 284 284 284 285 286 286 287 287 287 287 288 287 288 288 287 289
279 278 276 275 275 276 276 275 276 277 277 278 279 279 280 281 282 283 283 284 284 285 284 284 284 285 286 286 288 287 287 287 287 288 288 288 288 288
280 278 277 275 276 276 277 277 276 275 275 277 278 279 279 280 282 282 284 285 286 287 285 284 284 284 285 286 286 287 287 288 287 287 288 288 288 289
278 278 279 278 278 277 277 277 276 275 275 276 277 278 279 279 280 281 282 283 285 286 286 286 285 284 285 286 287 287 287 288 288 287 287 287 288 288
278 280 280 279 278 277 277 277 276 276 274 275 276 277 277 278 279 280 281 282 283 284 285 285 287 285 285 285 285 288 287 287 288 287 287 288 288 288
279 281 280 279 279 278 277 276 276 275 274 274 274 275 276 277 278 279 280 280 281 282 283 284 285 287 289 289 285 284 287 287 287 287 286 286 287 289
279 280 280 279 278 278 277 276 276 275 275 274 274 274 275 275 277 278 279 279 279 280 282 283 283 283 284 285 287 283 283 285 286 287 286 286 286 285
281 281 280 280 279 278 277 276 275 275 273 273 274 274 274 274 275 276 277 277 278 279 280 281 281 280 282 283 285 285 282 282 283 284 284 286 286 286
281 281 281 280 279 278 277 276 276 276 275 274 274 274 274 274 274 275 276 276 277 277 278 279 280 281 283 284 285 284 284 283 281 281 282 282 284 287
282 281 281 280 279 278 277 276 276 275 275 273 273 273 273 274 274 274 274 275 276 276 277 279 280 281 282 282 282 284 283 283 284 283 281 281 280 280

GFSNE_925_thetae_039.txt.gz
Theta_e
297 295 295 295 293 293 292 291 291 293 292 290 290 289 289 289 289 288 288 288 288 288 287 287 288 289 289 289 290 291 292 293 296 298 299 300 309 313
295 294 293 293 292 292 291 290 290 290 292 289 289 288 288 288 288 287 287 287 287 288 288 288 288 289 288 286 287 290 291 291 293 296 297 298 299 302
293 293 292 292 291 290 290 289 289 289 290 289 288 287 287 287 286 286 286 286 287 286 287 288 289 288 287 286 285 286 287 288 290 294 295 297 297 298
292 291 290 290 289 289 288 288 288 287 288 287 286 286 286 286 285 285 286 286 286 286 287 288 288 287 287 286 285 285 285 287 290 292 294 295 296 297
290 289 289 288 288 287 286 286 285 285 286 285 285 285 285 285 285 285 285 285 286 286 286 287 287 287 286 286 286 285 285 287 290 291 293 294 296 297
289 288 287 286 286 285 283 284 284 284 284 284 284 284 284 284 285 285 285 285 285 285 286 287 288 287 287 286 286 285 288 289 291 291 292 294 294 296
287 287 286 285 283 282 282 282 282 282 282 283 283 284 285 285 285 284 285 285 285 286 286 286 286 288 288 289 288 288 289 289 291 291 292 293 294 295
286 286 285 284 284 283 282 281 281 281 282 283 283 283 283 283 284 284 285 285 286 285 285 286 287 288 288 288 289 289 289 288 289 290 292 292 293 294
286 285 285 284 284 283 282 281 281 281 282 282 283 283 283 283 283 283 283 284 285 285 285 286 285 286 287 287 287 287 286 287 288 289 291 292 292 293
285 285 284 284 282 280 280 280 281 281 281 282 282 281 281 281 281 282 283 283 284 284 284 285 285 286 286 286 286 287 287 286 287 287 290 291 291 291
285 284 283 282 281 279 278 280 280 280 281 280 280 280 281 281 281 282 283 284 285 284 284 285 286 286 286 286 287 287 287 286 285 287 286 290 292 291
284 284 283 281 279 278 278 278 279 280 279 279 280 281 281 282 283 283 284 285 285 285 285 285 286 286 287 287 287 287 287 287 285 286 286 288 291 292
283 283 283 281 279 277 277 277 278 277 278 279 280 281 282 282 283 283 283 284 285 285 285 285 285 285 285 286 287 288 288 288 288 286 287 286 290 292
282 282 282 279 277 277 277 277 276 277 279 279 280 281 281 281 282 282 284 284 284 285 285 285 286 285 285 287 287 288 288 288 289 289 289 288 287 290
282 281 279 279 278 278 278 277 277 279 278 278 279 280 280 281 281 283 283 284 285 286 285 285 285 285 286 286 287 288 288 289 288 288 289 290 289 288
282 282 280 280 280 279 279 280 279 279 277 278 278 279 280 280 281 281 283 284 285 286 286 285 285 285 285 286 287 287 288 289 288 288 288 289 289 289
281 280 281 282 281 281 280 280 279 279 278 277 278 278 279 279 280 281 282 283 284 285 286 286 285 285 285 286 286 287 288 288 289 288 288 288 289 289
280 281 282 282 282 281 281 280 280 279 278 277 277 277 278 278 279 280 281 282 282 283 285 285 286 286 286 285 285 286 288 288 289 288 288 288 288 288
280 281 282 282 282 281 281 280 279 279 277 278 277 278 277 277 278 279 280 280 281 281 283 284 285 284 286 288 285 284 287 288 288 288 288 288 288 287
281 282 282 282 282 281 281 280 279 278 278 277 277 277 277 277 277 278 279 279 279 280 281 283 283 282 283 284 287 284 284 286 287 287 287 287 286 286
283 283 283 283 282 281 281 280 279 278 277 277 277 277 277 277 277 277 278 278 279 279 280 281 281 281 282 284 285 285 283 283 283 284 286 287 287 287
283 283 283 283 282 281 281 280 279 279 278 278 277 276 277 276 277 277 277 277 278 278 279 279 281 282 284 285 286 285 285 283 281 281 282 283 283 287
284 283 283 282 282 281 280 280 279 279 278 277 276 276 276 276 277 277 277 276 277 277 277 279 280 282 283 283 283 285 284 284 284 283 281 281 281 281

GFSNE_925_thetae_042.txt.gz
Theta_e
296 296 295 294 294 293 293 292 292 291 290 290 290 290 290 289 288 288 287 287 287 287 287 287 288 289 289 289 290 290 289 290 291 292 294 297 299 301
295 294 294 293 293 292 292 292 291 291 289 289 289 289 288 287 287 287 287 287 286 286 286 287 286 287 288 289 290 289 288 288 289 291 292 294 297 299
293 292 292 292 291 291 290 289 289 288 288 287 287 287 286 286 286 286 286 285 285 286 286 286 286 287 288 289 288 287 287 287 287 289 291 292 295 297
292 291 290 290 289 288 287 287 286 285 285 285 286 285 285 285 285 285 285 285 285 285 285 286 286 286 287 287 288 287 286 285 285 285 288 291 293 295
290 289 289 288 287 286 285 284 284 284 284 284 283 284 284 284 284 284 285 285 285 285 285 285 286 287 287 288 288 287 286 286 285 286 290 290 292 293
288 288 287 287 286 285 284 283 283 282 282 282 282 283 283 284 284 284 285 284 284 285 285 286 286 286 286 288 287 287 286 287 287 290 290 291 291 293
287 287 287 286 285 284 283 282 282 282 281 281 282 282 283 283 283 284 284 284 284 284 285 285 286 286 286 287 288 289 289 287 288 288 290 291 292 292
287 286 286 285 284 284 283 282 281 281 281 281 282 282 282 283 283 282 282 282 283 283 284 284 285 285 285 286 288 287 288 288 287 288 289 291 292 292
286 286 285 285 284 283 282 281 280 280 281 281 281 282 282 281 281 281 281 281 282 283 284 284 284 285 285 286 287 287 287 286 286 286 288 290 291 292
286 285 285 284 283 282 281 279 279 280 280 281 281 280 280 280 281 281 281 282 282 283 284 284 284 285 285 285 286 286 286 287 287 286 287 290 290 291
285 285 284 284 283 282 280 277 278 278 279 279 278 279 280 281 281 282 283 283 283 283 284 284 285 285 285 286 285 286 286 287 287 286 287 288 289 290
284 284 284 282 281 280 278 277 277 278 278 277 279 280 280 281 282 282 283 283 283 284 284 285 285 285 286 287 286 286 287 287 287 286 287 286 290 290
283 282 283 282 281 280 278 277 277 278 277 278 279 280 281 281 281 281 282 283 284 284 284 285 285 285 285 285 286 286 287 288 288 287 285 287 288 290
281 282 282 282 280 279 278 278 278 278 278 278 278 279 280 280 280 281 282 282 283 285 285 285 285 285 285 286 287 286 288 287 288 288 287 287 286 289
282 281 281 281 280 280 280 279 279 279 279 278 278 279 279 279 280 281 281 282 282 285 285 285 285 285 285 285 286 286 287 288 288 288 289 289 288 286
282 282 282 281 281 281 281 281 280 279 279 278 277 278 278 278 279 280 280 282 282 283 284 286 285 285 285 285 286 286 287 288 288 288 288 289 289 289
283 282 281 281 283 282 281 281 280 280 279 278 277 278 278 278 278 278 280 281 282 282 283 283 285 286 285 285 285 285 286 287 288 288 288 288 289 289
281 281 281 281 283 282 281 281 281 280 279 278 278 278 278 277 277 278 280 280 280 281 281 282 284 283 286 285 284 285 286 288 288 287 287 287 288 289
281 281 280 282 283 282 281 281 281 280 278 278 277 277 277 277 277 278 278 279 279 279 280 282 282 282 283 285 283 284 286 287 287 287 288 287 287 288
282 282 281 282 282 282 282 281 280 279 278 278 277 277 277 277 277 277 277 278 278 279 279 280 281 281 281 282 284 284 283 285 286 287 287 286 286 286
283 282 282 282 283 283 282 281 280 279 278 277 277 277 277 277 276 277 277 277 277 278 278 279 280 281 282 283 284 284 282 282 284 285 286 287 286 286
283 283 284 283 283 283 282 281 280 279 279 279 278 277 277 276 276 277 277 277 276 277 277 277 279 281 283 284 283 284 283 281 282 282 282 283 284 284
284 284 284 283 283 282 282 281 280 280 279 278 278 277 276 275 276 277 277 277 276 276 275 275 278 280 282 282 283 284 283 283 283 283 281 281 281 282

GFSNE_925_thetae_045.txt.gz
Theta_e
295 295 294 294 293 293 292 292 292 290 290 290 289 288 287 287 287 286 286 285 286 286 285 285 287 287 288 288 288 289 290 291 291 290 290 291 292 294
293 293 292 292 292 292 291 289 288 288 286 286 286 285 286 286 285 285 285 285 285 285 285 285 286 287 287 287 287 288 289 290 290 289 289 289 290 293
292 292 291 290 289 288 287 287 286 284 284 284 284 284 283 284 284 284 284 284 285 285 285 285 286 286 286 286 287 287 289 289 289 289 288 289 289 292
291 290 289 289 288 287 286 285 284 283 283 282 282 282 282 282 283 283 283 284 284 285 285 284 285 285 286 286 286 287 287 287 288 287 287 287 288 291
288 288 288 287 287 286 285 284 283 283 282 282 281 281 281 282 282 283 283 283 284 283 284 284 284 285 285 285 286 286 287 288 288 287 286 286 289 290
288 287 287 286 285 285 284 283 282 282 282 281 280 280 281 281 282 282 283 282 282 282 282 282 284 284 285 284 285 286 287 288 287 287 288 289 290 290
287 286 286 286 285 285 283 283 282 281 281 281 280 281 281 281 282 282 281 281 280 281 281 283 282 283 283 284 284 286 287 288 289 288 288 287 288 289
286 286 286 286 285 284 283 282 281 280 280 280 280 280 281 281 281 280 280 280 280 281 282 281 282 283 283 284 285 286 286 287 287 286 287 287 288 290
286 286 286 285 284 284 283 282 281 279 279 280 280 280 280 279 279 280 280 280 280 281 281 282 283 283 284 284 284 285 286 286 287 286 286 286 287 290
285 285 285 285 284 283 282 281 281 277 277 279 279 278 278 280 281 281 281 282 282 282 282 283 283 284 284 285 285 285 285 286 286 287 286 286 287 290
285 284 284 284 283 282 281 281 278 276 277 278 278 279 279 280 281 282 281 282 282 282 282 283 284 284 285 285 286 285 286 286 286 287 286 285 287 289
284 284 284 283 282 282 281 279 277 277 278 278 278 278 279 280 280 280 280 281 282 282 283 284 284 284 284 285 285 286 285 286 286 287 286 285 286 289
284 283 283 282 282 281 280 278 278 278 278 278 278 277 278 278 279 279 280 281 281 282 282 283 285 285 285 285 285 285 286 287 287 287 288 285 286 288
284 283 282 282 282 281 280 280 279 279 279 279 278 278 277 278 278 279 279 280 281 282 283 284 285 285 285 285 285 285 285 287 287 288 288 285 286 288
284 283 282 281 281 281 281 280 280 280 279 279 278 277 277 278 277 277 278 280 280 281 282 283 285 285 285 285 285 285 285 287 288 288 288 288 285 286
284 283 282 282 282 281 282 281 281 280 280 279 278 278 277 278 277 277 278 280 280 280 281 282 284 284 285 284 284 284 285 286 287 288 287 288 288 287
284 283 282 281 281 281 282 281 281 281 280 279 278 278 277 277 277 277 278 279 279 279 279 281 281 283 285 285 284 284 284 285 288 288 288 288 289 289
283 282 281 281 280 281 282 282 281 281 280 279 278 277 277 277 277 277 277 277 278 278 279 280 281 281 282 284 283 283 285 286 287 287 287 288 288 289
283 282 281 281 280 280 282 282 281 281 279 279 278 277 277 277 277 277 277 277 277 277 278 279 280 280 281 282 284 283 284 286 287 287 287 287 287 287
282 282 282 281 281 281 282 282 281 280 280 278 278 277 277 277 277 276 277 277 276 277 277 277 278 279 281 281 282 283 283 285 285 285 285 285 285 286
283 282 281 282 282 282 281 282 281 281 280 279 278 277 277 276 276 276 276 277 276 276 276 276 277 280 282 283 283 283 281 282 283 285 285 285 285 285
283 283 282 282 283 282 282 283 282 281 280 279 278 278 277 276 276 276 277 277 276 276 275 275 278 279 282 283 283 283 281 281 281 282 283 284 284 283
284 284 283 283 283 283 283 283 282 281 280 279 279 278 277 276 276 276 276 277 276 275 275 274 276 278 279 280 281 283 283 283 282 281 280 281 282 283

GFSNE_925_thetae_048.txt.gz
Theta_e
294 294 293 293 293 293 292 292 292 289 287 288 286 285 285 285 285 285 285 284 285 284 285 285 286 286 287 287 288 288 289 289 290 291 292 292 291 291
292 292 292 292 290 289 288 288 287 286 283 285 284 283 282 282 282 283 282 283 283 283 284 285 285 286 286 287 287 287 287 287 288 290 291 292 290 291
292 291 290 289 289 288 287 287 286 284 283 283 282 282 282 280 281 281 282 282 283 284 284 285 285 284 285 286 286 286 287 287 288 289 290 290 290 289
291 289 288 288 287 287 286 285 284 283 282 282 282 282 281 280 281 281 281 281 282 283 283 284 284 284 285 284 285 286 285 286 287 288 289 289 289 288
290 288 288 287 287 286 285 284 283 283 282 282 281 281 280 280 281 281 281 282 281 281 281 281 282 283 285 285 286 285 285 286 286 287 288 288 288 287
289 288 288 286 286 285 285 283 283 283 282 281 280 280 280 280 280 281 281 280 280 280 280 281 282 283 282 283 283 284 286 286 286 287 288 287 287 288
288 288 286 286 286 285 284 283 283 282 281 280 279 280 280 280 280 281 279 279 279 280 281 282 281 282 283 283 283 283 284 285 286 287 289 288 288 287
288 286 286 286 285 285 284 283 282 281 280 279 279 279 279 279 279 279 279 279 280 281 281 281 281 282 283 284 284 284 284 285 285 287 288 287 286 286
287 286 285 285 284 284 283 282 282 281 280 277 278 279 278 278 279 279 280 280 281 281 281 281 282 282 283 284 284 284 284 285 285 286 286 286 286 286
286 286 285 285 284 283 282 282 281 281 278 277 278 278 278 279 280 280 281 281 281 280 281 281 282 283 284 284 284 285 285 286 285 285 286 286 286 286
287 285 284 284 284 283 282 281 281 280 278 278 278 278 278 279 279 280 280 280 280 280 281 281 282 283 283 284 284 285 285 286 286 286 286 286 286 285
286 285 284 283 283 282 282 281 280 278 278 278 279 278 278 278 278 278 279 279 280 280 281 281 282 283 284 285 285 284 285 285 286 287 286 286 286 285
286 285 283 283 282 282 282 281 280 279 279 278 278 279 278 277 277 277 278 278 279 280 281 281 282 283 284 285 285 284 285 285 286 287 287 287 286 285
286 285 284 282 281 282 282 281 280 280 280 279 279 279 277 277 277 277 277 278 279 280 281 281 282 284 284 284 284 284 284 285 286 287 287 287 286 285
287 286 285 283 282 281 282 281 281 281 280 280 279 279 277 277 277 277 277 278 279 279 279 281 281 282 283 284 284 284 284 285 286 287 287 288 286 285
286 286 285 283 282 282 282 281 281 281 281 280 279 278 277 277 277 277 277 277 278 278 279 281 280 281 282 284 284 284 284 284 285 287 287 288 288 287
286 285 284 283 282 282 281 281 282 281 281 280 279 278 277 277 277 276 277 276 277 277 278 279 279 281 283 284 284 283 284 284 287 287 287 288 288 288
285 283 282 283 282 282 281 280 281 282 281 280 279 278 277 277 277 276 277 277 276 276 277 277 278 280 281 283 283 282 283 284 287 287 287 287 287 288
284 283 283 282 282 281 281 280 280 282 281 280 279 278 277 277 276 276 276 276 276 276 276 277 277 278 279 278 282 283 282 284 286 286 286 286 286 287
284 283 281 281 282 282 281 281 281 282 281 280 279 278 277 277 276 276 276 276 276 276 276 276 276 277 277 278 281 282 282 283 284 284 284 283 284 286
284 283 283 282 282 282 281 282 281 281 282 280 279 278 277 277 276 276 276 276 276 275 275 274 276 279 281 282 281 282 281 281 282 284 284 284 284 284
284 284 283 283 283 282 282 282 282 282 281 280 280 278 278 277 276 275 276 276 276 275 275 274 277 278 280 281 282 282 281 281 281 282 282 282 283 282
285 284 284 284 283 283 283 282 282 282 282 281 280 279 278 277 276 275 276 276 276 275 275 274 276 277 278 279 280 281 282 281 281 281 281 281 282 283

GFSNE_925_thetae_051.txt.gz
Theta_e
293 293 292 292 292 292 292 292 291 286 286 287 287 286 283 282 282 281 282 282 283 284 284 284 285 286 286 286 287 287 288 289 289 290 290 290 291 293
292 291 291 291 291 290 289 288 288 288 284 285 284 283 282 282 281 280 280 281 281 282 284 284 285 285 286 286 286 286 287 288 288 288 289 289 290 292
291 291 291 290 289 288 288 287 286 285 283 283 283 282 282 281 279 280 280 281 281 282 283 283 284 284 284 285 285 286 286 286 287 287 288 289 290 291
292 292 290 288 288 287 287 286 285 284 283 282 282 282 281 280 280 280 280 281 281 280 281 281 281 282 283 283 284 286 286 286 286 287 287 288 288 289
292 291 289 288 287 288 286 285 284 283 282 281 281 281 280 279 280 280 280 280 280 280 280 280 281 282 282 283 284 284 284 285 285 286 286 286 286 288
292 289 288 289 288 286 285 285 284 283 282 282 281 280 279 279 279 280 280 279 279 279 281 281 281 282 282 283 283 283 284 285 285 285 285 286 286 287
290 289 288 288 286 286 285 285 283 283 282 280 279 278 278 279 279 279 278 278 279 280 280 281 281 281 282 283 283 283 283 283 284 285 285 285 287 288
290 288 287 286 286 285 285 284 283 282 281 280 278 277 278 278 278 277 278 278 280 280 281 280 280 281 282 283 283 284 284 284 285 285 285 286 286 288
289 288 287 286 286 285 284 283 282 281 280 279 277 277 278 278 278 278 279 280 280 280 280 280 280 281 282 282 283 284 284 285 285 284 285 285 286 286
289 288 287 287 285 284 284 282 282 281 281 278 277 278 278 279 279 279 279 279 279 279 279 280 280 281 282 282 284 284 285 285 285 285 285 285 285 285
289 287 287 286 285 284 283 282 281 281 279 278 278 278 278 278 278 278 278 278 279 279 279 280 281 281 282 283 284 285 285 284 285 285 285 286 286 285
288 288 287 285 284 283 282 281 281 281 279 279 279 279 279 278 278 277 277 277 278 278 280 280 280 281 283 283 284 284 284 284 285 285 286 286 286 286
288 287 287 286 284 283 282 281 281 280 280 279 279 279 279 278 277 277 277 277 277 278 279 279 280 281 283 283 284 284 284 284 284 285 286 287 287 287
288 287 287 286 285 283 282 281 282 281 281 280 280 280 279 278 277 277 277 277 277 278 278 279 279 280 281 281 283 284 284 284 284 285 287 287 287 287
288 288 287 286 285 283 282 282 281 281 281 281 280 280 279 278 277 277 276 277 277 277 278 278 279 280 280 281 282 283 283 284 284 285 287 287 287 287
288 288 287 286 285 283 282 282 282 281 281 281 281 280 279 278 277 276 276 276 276 276 278 278 278 279 279 281 283 283 283 283 285 286 287 287 288 288
287 287 286 285 283 283 282 282 282 281 281 281 281 280 279 278 277 276 276 276 276 276 276 277 277 279 281 282 282 282 282 283 285 286 287 287 286 287
286 285 283 283 282 282 282 282 282 281 280 281 281 280 279 278 276 276 276 276 276 276 276 276 276 278 279 281 282 282 282 282 284 284 285 286 286 286
285 284 283 283 283 283 282 282 281 281 280 282 281 280 279 277 276 276 276 276 276 276 276 275 275 276 277 276 281 281 281 282 284 283 283 283 283 284
286 284 283 283 282 282 282 281 281 281 280 281 281 279 278 277 276 276 276 276 276 275 275 274 275 276 276 277 279 280 281 281 282 283 283 283 284 284
285 284 284 283 283 282 282 282 281 281 281 281 281 279 279 277 277 276 275 276 276 275 274 274 275 277 279 281 279 281 280 281 281 281 281 283 284 284
285 285 284 284 283 283 282 282 282 281 281 281 281 280 279 277 277 276 275 276 276 275 274 274 276 277 279 280 280 282 281 281 281 281 281 281 281 280
284 285 285 284 283 283 283 283 282 282 282 282 281 280 279 278 277 276 275 275 275 275 274 274 275 276 277 278 278 279 280 281 280 280 281 281 281 281

GFSNE_925_thetae_054.txt.gz
Theta_e
292 292 292 292 291 292 292 292 291 290 288 288 288 287 286 283 282 282 280 280 281 283 283 283 284 285 285 286 286 287 288 288 288 289 289 290 291 291
292 292 291 291 291 291 290 289 289 289 287 286 285 284 283 282 282 280 279 280 280 281 282 283 283 284 284 285 285 286 286 287 287 288 288 289 290 290
292 291 291 291 290 289 288 288 287 286 284 284 283 283 282 282 281 279 280 280 280 281 282 282 282 282 282 283 283 284 285 285 286 286 287 287 288 289
292 292 292 291 289 288 287 287 286 285 283 282 282 282 282 281 280 278 279 279 279 279 280 281 281 282 282 283 283 283 284 284 286 286 287 287 287 287
292 292 292 289 288 287 288 288 286 284 283 282 281 281 281 281 279 278 279 279 279 279 280 280 281 281 282 283 283 284 284 284 284 285 285 286 286 287
292 292 291 289 288 288 288 286 285 284 283 282 281 281 280 280 278 278 278 278 278 279 280 280 281 280 280 281 282 283 283 284 285 285 285 285 285 285
292 291 290 289 287 287 286 285 285 284 283 282 281 280 279 277 277 278 277 278 278 279 280 280 280 280 280 281 282 283 283 283 284 285 285 285 285 285
292 291 290 288 287 286 286 286 285 284 283 281 280 279 278 277 278 277 277 278 279 279 280 279 279 279 280 281 282 282 283 284 284 285 285 285 285 284
292 291 290 288 288 287 287 285 284 283 282 281 280 279 277 277 278 278 278 278 279 279 279 279 279 279 280 281 282 282 283 284 284 285 285 285 285 285
291 291 289 288 287 286 285 284 283 282 281 281 281 278 278 278 279 278 278 278 278 278 278 278 279 279 280 281 283 284 284 284 284 284 285 285 284 285
291 290 289 287 287 287 284 284 283 282 282 281 279 279 279 279 279 278 277 277 277 277 277 278 279 279 280 281 283 284 284 284 284 284 284 284 284 285
291 290 289 288 287 286 284 283 282 282 281 281 279 278 279 279 278 278 277 277 277 276 278 278 278 279 281 281 282 282 282 283 284 284 284 284 285 285
290 289 288 288 287 286 284 283 282 282 281 280 279 279 279 279 279 278 277 277 276 277 277 277 278 278 280 281 281 281 282 283 283 284 285 285 286 286
289 289 288 288 287 286 286 284 283 281 281 281 280 280 280 280 279 278 277 276 276 276 276 277 277 278 279 280 280 281 282 283 283 284 284 285 287 287
289 289 288 288 287 287 285 285 283 281 282 281 281 280 280 280 279 278 277 276 276 276 276 276 277 277 278 279 280 281 283 283 284 284 286 286 286 287
288 287 288 288 287 287 286 284 283 282 282 281 281 280 280 280 279 277 276 276 276 276 276 276 276 276 277 278 279 282 282 282 283 284 285 286 286 286
287 286 286 285 284 284 283 283 283 282 281 281 281 280 281 280 278 278 276 276 276 275 275 276 276 277 279 279 279 282 282 282 283 283 284 284 285 285
286 285 285 283 282 283 283 282 282 282 282 282 281 280 280 280 278 277 276 276 275 275 275 275 275 276 278 280 281 281 281 281 282 283 282 283 284 285
286 285 284 283 282 283 282 283 282 283 282 281 280 280 281 279 278 277 276 275 275 275 275 275 274 275 277 278 279 280 280 281 281 283 283 283 284 283
286 286 285 284 284 283 282 282 282 282 282 281 280 280 281 279 278 277 276 275 275 275 275 275 274 274 276 278 278 279 280 280 280 280 280 283 284 284
285 285 285 285 284 282 282 282 282 281 282 281 280 280 281 279 278 277 276 275 275 275 275 274 274 276 277 279 279 279 280 280 280 280 280 281 282 283
283 283 284 284 284 283 283 282 281 281 282 281 280 280 281 279 279 277 276 275 275 275 275 274 275 276 277 279 279 280 280 280 280 280 280 281 281 282
275 278 281 283 284 283 283 282 281 281 282 281 281 281 280 279 279 277 277 275 275 275 274 274 275 275 276 277 277 277 278 280 280 280 280 280 281 281

GFSNE_925_thetae_057.txt.gz
Theta_e
293 292 294 294 293 293 293 293 293 293 293 291 289 288 287 286 285 284 283 282 280 281 282 283 283 284 285 285 286 287 287 288 288 289 289 289 290 291
293 293 293 293 292 292 292 292 292 291 292 290 288 287 286 285 284 283 282 281 281 281 281 282 283 283 283 284 284 284 285 286 286 287 288 289 289 290
293 293 293 292 292 291 291 290 289 289 290 289 287 285 285 284 284 283 281 281 281 281 281 281 282 282 282 282 283 283 283 284 285 285 286 287 288 289
294 293 293 292 292 291 290 289 288 289 288 288 287 285 284 284 283 282 281 280 281 281 280 281 281 281 282 283 283 283 284 284 284 284 285 286 286 287
294 293 293 292 292 291 290 289 289 289 286 286 286 285 284 283 283 281 280 281 280 280 280 280 281 281 282 282 282 283 283 284 284 285 285 285 285 285
293 293 293 292 291 290 289 288 289 287 286 285 285 285 284 283 282 281 281 281 280 280 281 281 280 281 281 281 282 282 283 283 284 285 285 285 285 285
293 293 292 292 291 289 288 288 287 286 286 286 285 285 284 284 282 280 280 280 281 281 281 281 281 281 282 282 282 283 283 283 284 284 285 285 285 285
293 292 292 292 290 289 288 287 287 287 287 286 285 285 284 283 281 280 280 280 281 281 281 280 281 281 282 282 282 282 282 283 284 284 285 285 285 285
292 292 291 291 291 288 287 287 286 286 285 284 284 284 283 282 280 280 280 280 281 280 280 280 280 281 282 282 282 282 283 284 284 284 285 284 284 285
291 291 291 290 289 288 287 287 286 285 284 283 283 283 282 280 279 280 280 280 280 280 280 280 280 281 281 282 282 283 283 283 284 284 284 284 284 284
291 291 290 290 289 289 286 286 286 285 283 283 282 281 281 279 280 280 280 280 280 280 280 280 281 280 281 282 283 283 283 283 283 284 284 284 284 284
291 290 290 291 290 289 287 286 286 285 284 282 282 281 280 280 279 279 280 280 280 280 280 279 279 280 281 281 283 283 283 283 283 284 284 284 284 286
290 290 289 290 290 288 287 286 286 285 283 282 282 281 280 280 281 280 280 279 279 279 279 278 279 279 279 280 281 282 283 284 285 285 285 285 285 285
289 289 289 289 289 288 287 287 286 285 283 283 282 282 282 282 281 281 280 279 279 278 278 278 278 278 279 280 281 282 282 284 285 286 286 286 286 286
287 288 288 288 288 288 288 287 286 284 283 283 283 282 282 282 281 280 279 279 278 278 278 277 278 278 279 279 280 281 282 284 285 285 285 285 286 285
286 286 287 287 287 287 287 286 286 285 284 283 283 283 282 281 280 280 279 279 278 278 278 277 277 277 278 279 280 281 283 284 284 284 284 285 286 286
285 285 286 286 285 285 285 285 285 285 284 283 283 282 281 281 281 280 279 279 278 278 278 278 277 277 278 279 280 282 284 283 284 284 284 284 285 285
284 285 286 286 286 286 285 285 284 284 283 283 282 282 282 281 281 280 279 279 278 278 278 278 278 279 281 281 281 283 283 283 283 284 284 284 285 285
284 285 286 286 286 285 284 284 284 284 283 282 282 282 281 281 280 280 280 279 278 278 278 278 277 278 281 283 281 280 281 282 282 284 284 284 285 286
283 285 286 287 286 285 285 285 284 283 282 282 282 282 281 280 281 280 280 279 278 278 278 278 277 278 279 281 280 280 280 281 282 282 282 283 285 284
275 275 280 284 285 285 284 284 283 283 282 282 282 281 281 281 281 280 280 278 277 277 278 278 277 275 277 279 280 282 282 280 280 280 281 283 285 285
271 273 273 275 279 284 284 284 283 282 282 281 281 281 280 280 280 280 279 279 278 277 277 277 276 277 278 280 281 282 282 281 280 280 280 280 282 284
270 270 271 272 274 276 280 284 283 282 281 281 281 280 280 279 280 280 279 278 277 277 277 276 276 276 277 278 279 280 280 281 281 282 281 280 280 281

GFSNE_925_thetae_060.txt.gz
Theta_e
294 295 296 296 296 296 295 295 295 297 296 294 293 293 291 290 289 287 286 286 285 283 283 283 283 284 284 285 285 286 286 286 287 288 289 289 290 291
294 296 297 296 296 295 295 294 294 294 296 293 293 292 291 289 288 286 286 285 284 283 283 283 283 283 283 284 284 284 284 285 285 286 287 287 288 289
296 296 296 296 296 295 294 294 293 293 293 292 292 291 290 289 288 287 286 285 284 283 283 282 282 282 282 283 283 283 284 284 285 285 285 286 287 288
297 296 296 296 295 295 294 294 293 292 292 292 292 291 290 289 288 287 286 285 284 284 283 282 282 281 282 282 283 283 283 284 284 285 285 286 286 286
296 296 296 296 295 295 294 293 292 292 291 292 291 290 289 289 288 287 286 284 284 283 282 282 282 282 282 282 283 283 283 283 284 284 285 285 285 285
296 296 296 295 295 294 294 293 292 291 291 291 290 289 289 288 288 286 286 284 284 284 284 283 283 283 283 283 283 283 283 283 284 284 285 284 285 285
296 296 295 295 294 293 293 292 291 291 291 290 290 289 289 288 288 287 285 284 284 284 284 284 284 284 284 283 284 283 284 284 283 284 284 284 284 285
296 295 295 294 293 292 292 291 290 290 290 289 289 289 288 288 287 286 285 284 285 284 284 283 283 284 284 284 284 283 282 283 284 285 285 285 285 285
295 295 294 294 293 292 292 291 289 288 287 288 288 289 288 287 286 285 284 284 284 284 283 283 283 283 284 284 284 283 283 284 284 284 285 285 285 285
293 293 293 293 293 293 292 291 291 290 288 287 287 287 286 286 285 284 283 283 283 283 283 284 283 283 284 283 283 283 284 284 284 284 284 284 284 284
293 293 292 292 292 292 292 291 291 290 289 287 286 285 284 284 283 282 282 283 284 284 283 283 283 282 283 283 284 284 283 284 284 284 284 285 285 284
291 291 292 292 292 291 291 290 290 290 289 288 286 284 283 283 282 281 282 283 283 283 283 282 282 282 283 283 283 283 284 284 284 285 285 286 286 287
290 290 291 291 291 291 290 289 290 289 288 288 287 286 285 284 283 282 282 282 283 283 283 281 281 281 282 282 282 282 283 284 285 286 286 286 286 286
286 287 288 289 289 289 290 288 288 288 288 288 286 285 285 284 284 283 283 283 282 282 281 281 281 281 281 282 282 282 283 284 285 286 286 286 285 286
284 284 285 286 286 287 287 287 287 287 287 287 287 286 285 285 284 284 283 282 282 281 281 280 280 280 280 281 281 282 283 284 285 286 286 285 285 286
283 284 285 283 284 285 286 287 288 287 287 287 287 286 286 285 284 283 283 282 282 282 282 281 280 280 280 280 281 282 283 284 285 285 285 284 285 286
281 283 284 285 286 286 287 287 287 287 286 286 287 286 286 285 284 283 283 282 282 282 282 281 281 280 280 281 281 282 283 285 285 284 285 285 285 287
282 285 285 285 286 286 287 288 287 286 286 286 286 286 285 285 284 284 283 282 282 282 282 281 281 281 281 283 283 283 284 284 283 284 285 285 286 287
280 281 281 281 286 287 287 288 287 287 286 286 286 285 285 285 284 284 283 282 282 282 282 281 281 281 283 284 284 282 283 283 283 284 284 284 285 286
277 278 278 279 280 282 287 287 287 287 286 285 285 285 284 284 284 283 282 282 282 282 281 281 281 281 281 282 282 282 281 281 282 283 283 283 285 286
275 275 276 275 277 278 280 285 285 286 285 285 284 284 284 284 283 283 282 282 281 281 281 281 281 279 277 280 281 283 284 282 281 281 281 283 285 287
273 273 273 274 273 275 277 279 281 285 285 284 284 284 284 283 283 283 282 282 281 280 281 281 280 279 279 281 282 282 283 283 282 281 281 280 282 284
271 271 272 272 272 272 274 275 277 279 284 284 284 284 284 283 283 283 282 282 281 281 280 280 280 279 279 280 280 281 282 282 282 283 283 281 280 280

GFSNE_925_thetae_063.txt.gz
Theta_e
297 297 295 297 298 299 298 298 297 298 298 296 296 296 295 294 293 292 290 289 288 287 286 284 284 284 285 285 285 286 286 286 286 287 287 288 289 290
295 295 297 298 299 298 298 297 297 296 298 296 295 295 294 293 292 291 290 289 288 287 286 284 283 284 284 284 284 284 285 285 285 286 286 287 287 288
298 298 299 299 298 298 297 297 296 295 296 295 294 294 293 293 292 291 291 289 289 287 285 284 284 284 283 283 283 283 284 284 285 285 285 286 287 288
298 299 299 298 298 298 297 296 296 295 295 295 294 293 293 292 292 291 290 289 288 287 286 285 284 283 283 283 283 283 284 284 284 284 284 285 285 286
299 299 299 298 298 297 297 296 296 295 295 294 294 293 293 292 291 291 290 289 288 287 285 285 284 284 284 283 283 283 284 284 284 284 284 285 285 286
299 299 298 298 297 297 297 296 296 295 295 294 294 293 293 292 291 290 290 289 288 287 286 286 285 285 285 285 285 284 284 284 284 284 284 284 284 285
298 298 298 298 297 296 296 295 295 295 294 293 293 293 292 291 290 290 290 289 288 286 286 286 286 285 285 285 285 285 285 284 284 284 284 285 285 285
299 298 297 297 297 296 295 294 294 293 293 293 292 292 291 290 290 290 289 288 288 286 286 286 285 285 285 285 285 284 284 283 283 283 285 285 285 285
296 296 296 296 295 295 295 294 294 293 292 291 291 291 290 290 289 289 288 287 287 286 285 285 285 285 285 285 285 284 284 283 284 284 284 284 284 284
294 294 294 294 294 294 294 294 294 293 292 291 289 289 289 288 288 288 287 286 285 284 285 286 285 285 285 284 284 284 285 284 284 283 284 284 285 285
292 292 293 293 293 293 292 293 293 293 292 291 290 290 289 288 287 286 285 285 285 285 285 285 285 284 284 284 284 284 284 283 284 284 285 285 285 286
290 291 291 291 291 291 291 291 292 292 292 292 290 289 288 287 285 284 284 284 284 285 284 285 285 284 284 283 284 284 283 284 284 285 285 285 286 286
286 286 287 287 287 287 287 287 289 290 291 291 291 290 289 287 286 285 284 283 284 284 284 284 284 283 283 283 283 283 284 284 285 285 285 286 286 286
283 283 284 284 283 283 284 285 286 287 288 290 290 289 289 287 287 286 285 284 284 284 284 283 283 283 282 283 283 283 283 283 284 285 286 286 286 285
281 281 281 282 283 285 286 286 286 286 287 288 289 289 288 287 287 286 286 285 285 284 284 283 282 282 282 282 283 283 283 284 284 286 286 286 285 285
280 280 281 283 285 285 286 286 286 287 287 288 289 288 288 287 287 287 286 285 284 284 283 283 283 282 282 282 282 283 283 283 284 286 285 284 286 286
278 280 283 284 284 285 286 287 287 288 287 287 288 288 288 288 287 286 286 285 285 284 283 283 283 283 282 282 282 282 283 284 285 285 284 285 286 286
279 281 281 281 282 282 283 284 288 288 288 287 287 288 288 287 287 286 285 285 285 284 283 283 283 283 283 283 283 283 284 285 284 284 284 285 285 285
279 279 279 279 279 279 280 281 284 288 288 287 287 287 287 287 287 286 285 285 284 283 283 283 283 283 284 284 284 284 284 283 283 283 284 283 283 284
278 277 277 277 277 277 277 278 280 283 287 287 286 287 287 286 286 286 286 285 284 283 283 283 283 283 283 283 282 282 282 282 283 283 282 282 284 285
276 276 276 275 275 275 276 276 277 279 281 286 286 286 286 286 286 286 285 284 284 283 283 283 283 281 281 280 281 282 284 283 282 282 282 282 283 285
274 274 274 274 274 274 274 274 274 276 277 281 286 285 285 285 285 285 285 284 283 282 282 282 282 281 281 281 282 283 283 283 282 283 282 281 282 283
272 272 272 272 272 272 273 273 272 273 275 277 280 283 285 285 285 285 284 284 283 282 282 282 282 281 281 281 281 281 282 283 283 283 283 282 281 281

GFSNE_925_thetae_066.txt.gz
Theta_e
303 301 299 298 296 297 298 300 299 296 295 298 297 296 296 296 295 294 293 292 291 290 289 288 287 287 286 285 285 286 286 286 286 287 287 287 287 288
301 299 297 296 299 298 299 299 299 298 296 297 297 296 295 294 294 294 293 292 291 290 289 288 287 285 284 285 285 284 285 285 285 286 286 287 287 288
300 298 299 300 299 299 299 299 298 297 296 296 296 295 295 294 293 293 293 292 291 290 289 288 287 286 285 284 283 283 284 284 285 285 285 286 286 287
301 300 300 299 299 300 299 298 298 297 296 295 296 295 295 294 293 293 292 292 291 290 289 289 287 286 285 284 284 284 284 284 285 285 284 285 285 285
300 299 300 300 300 299 298 298 298 297 297 296 295 295 295 294 293 293 292 291 291 290 289 288 286 286 285 285 285 285 284 284 285 285 285 284 284 285
299 299 299 300 299 299 298 298 298 297 297 296 295 295 294 294 293 292 291 291 290 290 289 288 286 286 286 286 285 285 286 285 285 285 284 284 284 284
298 299 299 299 298 298 298 297 297 297 296 294 293 294 293 292 292 291 290 290 290 289 288 286 286 286 286 285 285 285 285 284 284 284 283 284 284 284
297 298 299 298 297 298 297 297 297 296 295 295 294 292 292 292 291 291 290 290 289 288 288 286 286 285 284 285 285 285 284 284 284 283 283 284 283 283
296 295 295 295 295 295 295 295 295 295 295 294 294 293 292 292 291 290 289 289 288 288 286 285 285 285 284 286 285 285 284 284 284 284 283 283 283 284
293 293 293 293 293 293 292 291 291 292 293 293 293 293 292 291 291 289 289 289 287 286 285 284 285 285 285 285 284 284 284 284 284 283 283 284 284 284
291 291 290 289 288 288 287 287 288 289 290 291 292 292 292 291 290 289 287 287 286 285 285 285 285 285 285 284 283 284 284 284 284 284 284 284 285 284
286 285 284 285 285 285 284 285 286 286 286 287 286 288 291 291 290 288 288 286 285 284 285 284 285 284 284 283 284 283 283 283 283 284 284 284 285 286
283 283 283 283 283 281 280 282 282 283 284 285 286 287 289 290 289 288 287 286 285 284 284 284 284 284 283 283 283 282 282 283 283 283 284 285 285 286
281 281 281 281 280 281 283 284 284 285 285 285 285 286 288 289 289 286 286 285 285 284 284 284 284 284 283 282 282 282 282 282 283 283 284 285 286 285
279 279 279 280 282 283 284 285 285 285 285 285 286 285 286 288 289 287 287 287 286 284 284 284 284 283 283 282 282 282 282 282 282 284 285 284 284 285
277 277 279 281 282 281 282 282 283 283 285 287 286 286 286 288 288 287 287 286 286 285 285 284 284 283 283 283 282 282 282 282 282 283 285 283 284 285
277 278 280 280 280 279 279 280 280 281 281 286 287 287 287 287 288 287 287 286 285 285 285 284 283 283 283 283 282 282 282 282 283 284 283 283 284 285
278 279 279 279 278 278 278 278 278 278 280 280 287 287 288 288 288 287 287 286 285 285 285 284 283 284 283 283 283 283 283 283 284 283 282 284 283 283
278 278 278 277 277 276 276 276 276 276 277 280 285 287 287 288 287 287 286 286 285 285 284 283 283 283 281 280 283 283 284 283 283 282 282 282 282 282
277 277 276 275 275 275 274 274 275 275 275 276 278 285 287 287 287 287 286 286 285 285 284 283 283 283 283 280 281 282 280 281 282 282 282 282 282 284
275 275 274 274 273 273 273 273 273 274 273 274 276 278 284 286 286 286 286 286 285 284 283 283 283 282 282 281 279 280 282 283 283 282 282 282 282 282
274 273 273 273 272 272 272 272 272 272 272 272 274 276 276 280 285 285 286 285 284 284 283 283 282 282 281 281 281 281 282 283 282 282 283 282 282 277
272 272 272 271 271 270 270 270 270 271 271 271 272 273 273 274 277 283 285 285 284 283 283 282 282 282 281 281 281 281 281 282 282 282 283 283 283 281

GFSNE_925_thetae_072.txt.gz
Theta_e
314 312 311 308 305 304 304 304 300 299 297 299 298 298 298 297 296 295 295 296 296 295 294 294 293 291 290 290 290 290 289 288 287 287 287 287 287 288
311 310 308 306 303 304 303 301 299 298 298 298 298 298 298 297 296 296 296 295 294 294 294 293 292 291 290 289 289 289 288 287 287 287 287 287 287 287
309 307 304 303 303 302 301 300 300 298 296 297 298 298 297 297 296 296 295 295 294 294 293 293 292 290 290 289 288 288 287 286 287 286 286 287 287 286
306 303 302 301 300 300 300 299 299 299 298 296 297 297 297 298 297 297 296 296 295 294 294 292 292 291 290 290 289 287 285 285 285 285 286 287 287 287
303 302 301 300 300 299 299 300 299 298 298 297 296 297 297 297 297 297 296 296 295 294 294 293 293 292 290 290 289 286 286 285 285 285 285 285 286 286
301 301 300 299 299 299 299 299 298 298 297 296 295 295 295 295 295 295 294 294 294 293 293 291 291 290 290 289 288 286 286 286 285 285 285 284 284 284
300 299 299 298 298 297 297 295 294 293 293 292 292 292 293 293 292 293 293 293 292 291 292 291 290 290 289 288 288 286 285 285 285 285 284 284 284 284
298 297 296 294 293 293 292 291 290 289 288 287 288 288 289 289 291 291 290 290 290 291 291 291 291 289 288 287 286 285 285 284 285 284 284 283 284 283
296 294 292 291 291 290 290 289 288 284 281 281 284 285 286 287 287 288 289 289 290 290 290 288 289 289 288 286 285 285 284 285 284 284 284 284 283 283
292 291 290 289 286 284 284 282 281 280 282 283 284 284 284 283 284 284 285 285 286 289 289 288 289 288 288 286 286 284 284 285 284 283 283 283 283 283
289 286 285 283 281 280 280 280 282 282 283 283 283 283 284 284 284 284 284 284 285 286 288 287 287 288 286 286 285 284 284 283 283 282 282 283 283 283
284 282 280 279 279 279 281 282 282 282 282 281 282 283 283 283 284 284 284 284 285 285 287 286 286 285 284 284 284 284 283 283 283 282 282 282 282 283
281 279 278 278 279 281 281 280 280 280 279 279 279 281 281 282 283 284 284 284 285 286 287 286 286 284 284 283 283 283 283 283 282 281 281 281 282 283
278 278 277 279 280 280 279 279 278 277 277 277 278 278 279 280 279 281 285 285 285 285 286 286 285 284 283 282 283 283 283 283 282 281 281 282 282 284
277 277 278 279 279 278 277 277 276 275 275 275 276 276 276 276 278 280 284 285 285 285 286 286 286 284 283 283 283 283 283 282 282 281 282 282 283 283
277 278 278 278 277 276 276 275 274 274 274 274 274 274 274 276 278 279 285 285 286 285 285 285 285 284 283 284 284 284 283 282 282 282 282 282 282 282
278 278 277 276 275 275 275 274 273 273 273 273 272 272 273 274 276 277 278 285 286 285 284 285 285 284 284 284 284 283 282 282 282 282 282 282 282 282
277 276 275 274 274 273 273 272 272 271 271 271 271 271 271 273 275 275 277 286 285 285 286 285 285 283 283 284 283 283 283 283 283 282 283 282 282 282
275 275 274 273 272 272 272 271 271 270 270 270 270 269 270 271 273 273 275 283 286 285 285 285 284 283 282 278 283 283 283 282 283 283 283 282 281 282
275 274 272 272 271 271 270 270 269 269 268 268 268 268 269 269 271 272 273 274 280 285 284 284 284 284 283 279 281 283 283 283 282 280 282 282 282 281
273 272 271 271 270 269 268 268 268 268 267 267 268 267 268 267 269 270 271 272 273 281 284 283 284 284 284 283 280 281 282 281 281 282 283 282 282 282
271 270 270 269 269 268 267 267 267 266 266 266 267 267 267 266 267 269 270 270 271 273 281 284 284 283 282 281 280 281 280 281 281 282 282 282 282 277
270 269 269 268 267 267 267 266 266 266 266 266 266 266 266 266 266 268 268 269 270 272 276 283 283 282 281 281 281 281 280 280 281 282 282 281 282 282

GFSNE_925_thetae_075.txt.gz
Theta_e
318 316 315 314 312 310 307 305 304 302 299 302 302 300 298 298 298 298 296 295 295 295 295 296 296 295 293 293 293 293 292 292 291 290 289 288 288 288
316 315 313 313 310 306 304 303 303 301 299 300 299 300 299 298 298 297 297 296 296 296 294 294 294 295 294 293 292 291 292 291 291 289 289 288 288 288
315 313 311 310 306 303 302 302 301 299 298 298 298 298 298 298 298 297 297 297 297 296 295 295 294 294 294 293 292 290 290 290 290 289 288 288 288 287
312 309 307 304 302 301 301 300 300 299 298 296 298 298 297 297 297 297 297 297 296 296 296 296 295 294 294 293 291 290 290 290 289 287 287 287 287 287
310 307 305 302 302 300 300 299 299 299 298 296 296 296 296 296 295 295 295 295 295 295 295 295 294 295 294 292 292 291 290 290 290 286 285 285 285 286
306 304 302 301 300 300 299 299 298 297 297 295 293 292 292 292 292 292 292 292 292 293 293 293 293 293 293 293 292 290 291 290 288 286 286 285 285 285
302 301 300 299 299 298 298 297 295 293 291 289 289 288 288 288 288 288 289 289 289 289 290 292 291 291 292 291 290 290 289 288 286 286 285 285 285 284
300 299 297 297 295 293 293 292 291 288 287 285 284 283 283 283 284 285 286 286 286 287 289 289 290 290 290 290 290 289 288 288 285 285 284 285 284 283
298 296 293 291 290 290 289 289 287 283 281 281 282 283 283 283 283 283 284 284 284 284 285 286 287 288 290 290 288 289 287 285 285 284 285 284 284 284
293 291 290 288 287 286 285 282 281 281 282 282 282 283 283 283 283 283 283 283 283 283 283 284 284 285 288 289 289 288 285 285 285 285 284 283 283 283
289 287 286 284 282 280 280 280 281 281 281 281 280 281 282 282 282 283 283 283 284 283 283 284 285 286 287 288 288 287 284 285 284 284 283 283 282 282
286 284 281 280 279 279 281 281 280 280 279 278 278 278 279 280 281 281 282 283 284 284 284 285 285 285 286 285 287 285 285 284 284 283 282 282 282 282
283 280 279 278 279 280 281 279 279 278 277 276 276 277 277 278 278 279 279 280 283 284 284 284 285 285 285 283 283 284 284 283 283 283 282 281 281 281
280 278 278 278 280 280 278 278 277 275 275 275 275 275 275 275 275 276 277 278 280 282 283 284 285 285 284 282 282 283 283 283 283 282 282 281 281 282
278 277 278 279 279 278 277 276 275 274 273 274 274 273 273 273 274 275 276 277 279 283 284 284 284 285 284 283 282 283 283 283 283 282 282 282 282 283
277 278 278 278 277 276 275 275 273 273 272 273 272 272 272 272 272 273 275 275 276 279 285 285 284 284 283 283 283 283 283 283 282 282 282 282 282 282
278 278 277 276 275 275 274 273 273 272 272 271 271 271 271 270 271 272 273 274 275 280 285 285 284 284 284 283 283 283 284 283 282 282 282 282 282 282
277 276 275 274 273 273 273 272 271 271 270 270 269 269 269 269 269 270 271 273 274 276 284 284 283 282 282 283 283 284 283 283 283 283 282 282 282 282
276 275 273 272 272 272 271 271 270 269 269 268 267 268 268 267 268 268 270 271 273 274 275 285 284 284 283 281 283 283 283 282 282 282 283 282 282 281
275 273 272 271 271 270 270 269 268 268 268 267 267 267 267 267 267 267 268 270 271 272 274 281 284 284 282 280 281 283 282 282 282 282 282 280 282 282
273 272 271 270 269 269 268 267 267 266 266 266 266 266 266 266 265 265 266 268 269 271 273 274 281 284 284 284 280 282 282 282 282 282 281 282 282 281
271 270 270 269 268 267 267 266 266 266 266 266 266 265 265 265 265 265 265 267 268 269 271 272 276 282 283 282 281 281 282 280 281 281 282 282 282 276
269 269 268 267 267 266 266 265 265 265 265 265 265 264 264 265 265 265 265 265 266 268 270 272 273 282 282 282 281 281 280 280 280 280 281 282 281 281

GFSNE_925_thetae_078.txt.gz
Theta_e
318 321 317 316 314 312 312 310 307 304 301 302 303 302 300 300 300 298 297 297 297 296 295 295 295 294 295 296 296 296 296 296 295 294 293 292 291 290
321 321 316 314 314 313 310 307 306 304 302 302 302 301 301 301 300 298 298 297 296 296 296 296 296 295 294 294 294 295 294 295 295 294 293 292 291 290
318 316 313 314 313 309 307 304 302 302 299 299 300 301 299 298 298 297 297 297 296 296 296 296 296 295 295 295 294 294 294 294 294 292 292 292 291 290
317 313 311 310 308 306 305 302 302 301 299 297 298 298 298 297 297 297 296 296 295 295 294 294 294 295 295 295 295 293 294 293 293 291 291 291 291 289
314 311 308 307 305 303 302 301 301 299 298 297 297 296 295 296 294 293 292 292 292 291 291 291 291 292 293 293 293 293 293 293 292 291 291 290 290 288
309 308 306 306 305 302 300 300 299 298 296 295 293 292 291 291 289 288 286 285 284 283 283 283 283 285 288 290 291 291 292 292 292 291 290 289 290 286
304 303 302 301 300 300 299 298 297 295 292 290 289 288 287 285 283 283 283 284 284 284 284 284 286 287 285 286 289 290 291 292 291 291 290 289 288 286
300 299 299 299 298 297 296 294 292 290 289 286 284 283 282 282 283 283 283 283 284 284 284 284 283 284 284 283 286 288 290 290 290 290 289 288 286 285
299 297 295 293 293 292 291 289 288 285 283 282 282 282 282 282 282 282 282 282 282 282 282 283 283 283 283 283 284 284 285 289 289 289 288 286 285 284
296 294 293 290 289 288 287 284 282 281 281 282 282 282 281 281 282 282 282 282 282 282 283 283 283 283 283 284 284 285 288 288 288 287 285 285 285 284
290 289 288 286 284 283 281 280 281 281 280 280 279 278 278 279 281 282 281 282 282 282 283 283 283 283 284 284 284 285 286 287 287 285 284 284 284 283
285 283 283 281 279 279 280 281 280 280 279 278 277 277 277 277 278 278 280 280 280 281 283 283 283 283 284 284 285 286 286 286 285 284 284 284 283 282
283 281 279 278 279 280 280 279 279 278 277 276 276 276 276 276 275 275 276 277 278 278 279 279 282 283 284 284 284 284 285 286 284 284 283 282 282 281
281 279 278 279 280 280 279 278 277 276 275 274 274 275 275 274 274 274 275 275 276 277 278 278 280 283 284 284 283 283 284 284 283 283 283 282 281 281
279 278 278 278 279 278 277 277 276 274 273 273 273 273 273 273 272 272 273 274 274 275 277 279 279 282 284 284 284 283 283 283 282 283 282 281 281 281
278 278 278 278 277 277 276 275 274 273 272 273 272 272 271 271 271 271 271 272 273 275 276 278 281 283 284 284 283 283 283 283 283 283 282 281 282 282
278 278 277 276 276 275 274 274 273 272 272 271 271 270 270 270 269 270 270 270 271 273 274 277 280 284 284 284 283 283 283 283 283 283 281 281 282 282
277 276 276 275 274 274 273 273 272 271 271 270 270 269 268 269 268 269 268 268 270 271 272 273 276 282 283 283 284 283 283 283 283 282 282 281 282 282
276 276 275 274 273 272 272 271 271 270 269 269 268 267 267 267 266 267 267 267 268 269 270 272 275 279 283 283 283 283 283 284 283 282 282 281 282 281
275 274 273 272 271 271 270 269 269 268 267 267 266 266 266 266 266 266 266 266 266 268 269 272 274 276 281 283 282 283 283 283 282 282 282 282 281 281
273 272 272 271 270 269 268 268 267 267 266 266 266 265 266 265 264 264 265 265 265 267 268 269 271 272 274 279 282 282 282 282 282 282 282 281 281 281
271 270 270 269 268 267 267 266 266 265 265 265 265 265 265 264 264 264 264 264 265 265 266 268 270 272 274 281 282 282 282 282 282 282 282 281 281 281
268 267 267 267 266 266 265 264 264 264 264 264 264 264 263 263 264 263 263 264 264 265 265 268 269 271 273 281 282 281 281 281 280 281 281 281 281 281

GFSNE_925_thetae_081.txt.gz
Theta_e
319 319 319 320 317 317 312 311 311 308 309 305 305 304 304 303 300 299 301 299 298 297 297 296 296 296 296 296 295 294 295 297 298 298 297 297 296 295
319 319 319 317 317 316 316 312 310 310 309 306 303 301 300 299 300 300 299 298 298 297 296 296 295 295 295 295 295 295 294 294 294 295 295 296 296 295
320 319 319 317 315 313 312 312 307 307 307 303 302 301 302 300 298 297 297 297 297 297 297 297 296 296 296 296 296 296 295 294 294 294 294 295 296 295
319 320 319 316 311 311 311 308 305 303 303 302 300 300 299 298 297 297 296 295 295 294 294 293 293 293 292 292 292 292 293 293 293 293 293 294 295 294
319 317 316 313 309 308 306 303 303 302 301 300 298 298 297 297 295 295 293 292 291 290 288 285 285 284 284 284 284 285 286 288 291 292 292 293 294 292
316 313 311 309 308 306 303 302 301 299 298 297 296 295 294 293 291 291 289 287 286 285 285 285 284 284 284 284 284 284 283 285 289 290 291 293 293 292
310 308 306 305 305 304 302 300 299 298 296 294 291 291 291 291 289 286 285 285 285 285 286 286 286 285 285 285 285 285 285 284 286 290 292 292 292 291
305 302 301 301 300 299 299 298 297 294 292 290 290 289 288 285 285 285 285 285 285 285 285 284 284 285 285 285 285 284 283 283 285 288 291 291 291 290
301 298 297 296 297 295 294 292 291 291 289 287 285 285 285 284 284 284 284 284 284 284 284 284 285 285 285 285 285 285 284 284 285 286 287 289 290 289
297 296 296 292 291 291 289 287 285 283 282 282 282 283 283 283 283 283 283 283 283 284 284 284 284 285 285 285 285 285 284 284 285 287 288 289 288 288
291 291 290 288 289 288 284 282 282 281 281 280 280 279 278 278 279 281 282 282 283 283 282 283 284 284 284 285 285 285 285 284 285 286 286 287 286 285
286 287 286 285 282 281 281 281 282 281 280 279 279 278 278 279 277 279 279 280 281 282 284 283 283 282 284 284 285 286 285 285 285 286 287 285 285 286
284 281 280 279 280 280 280 281 280 279 278 277 277 277 277 277 277 276 276 277 278 280 280 280 280 281 282 283 284 285 285 285 285 286 285 285 285 284
281 279 279 280 281 280 279 278 278 277 277 277 276 277 276 276 276 275 275 275 276 276 277 277 278 279 280 281 284 285 285 285 285 285 285 284 282 282
281 279 278 280 279 278 277 277 276 276 276 276 276 276 275 274 274 274 274 274 274 274 275 276 277 278 279 280 282 285 285 285 284 285 284 284 284 283
279 278 279 279 278 277 277 276 276 275 274 275 275 274 273 273 273 273 272 273 273 274 275 275 276 277 278 281 282 285 285 285 285 284 284 284 283 283
279 279 278 278 277 277 276 275 275 274 274 274 273 273 273 272 272 271 271 272 272 273 273 274 275 276 278 280 284 286 285 285 285 284 284 284 283 283
278 278 277 276 276 276 276 275 274 273 273 272 272 272 271 270 270 270 270 271 271 271 272 273 274 276 279 283 284 286 285 285 285 284 284 283 283 283
278 277 276 275 275 275 274 274 273 272 271 270 270 270 269 269 269 270 270 270 270 270 271 272 273 275 279 281 284 283 285 285 285 284 284 283 283 283
276 276 275 274 274 273 272 272 271 270 269 269 269 268 268 268 268 269 269 269 269 269 270 271 272 274 275 276 276 281 283 285 284 284 284 283 283 283
274 273 273 272 272 271 270 269 269 268 267 267 267 267 267 267 267 267 267 267 267 268 270 270 271 270 272 273 277 279 283 283 284 284 284 283 283 283
270 270 270 269 268 268 268 267 267 267 267 266 266 266 266 266 266 266 267 267 267 268 269 269 269 271 273 273 276 281 283 283 282 282 282 283 283 283
267 267 267 266 266 266 265 265 265 264 264 264 264 265 265 265 265 265 266 267 267 267 267 268 269 271 272 273 275 277 284 282 283 283 283 281 281 281

GFSNE_925_thetae_087.txt.gz
Theta_e
325 325 325 325 324 323 323 321 321 320 316 314 314 314 314 315 312 308 307 307 307 306 303 301 300 299 298 297 296 296 296 297 298 300 300 300 300 300
325 326 325 325 324 323 323 322 319 317 315 314 314 313 314 312 308 306 306 306 304 303 301 300 299 298 297 297 297 296 296 296 296 296 296 298 299 299
324 324 324 324 324 323 322 321 318 315 314 315 314 314 311 309 307 306 305 304 304 302 301 301 299 297 297 297 297 297 297 297 296 296 295 295 295 296
323 323 323 324 323 321 320 318 316 315 314 314 312 310 307 307 303 303 302 301 301 301 301 300 299 298 297 297 296 295 295 294 293 292 288 286 286 289
323 323 323 322 320 318 318 316 314 313 312 311 304 303 302 304 303 301 300 300 300 300 300 298 297 295 293 291 290 288 286 285 285 285 284 284 284 285
323 323 321 321 319 316 316 314 312 309 307 306 303 301 301 299 299 299 298 299 299 298 297 294 291 289 288 288 287 286 286 286 286 285 285 285 284 284
322 321 319 318 317 315 314 311 308 305 302 301 298 297 297 296 296 296 296 296 295 295 293 291 291 291 290 290 289 288 289 288 287 286 285 285 285 284
322 319 314 311 310 308 306 304 304 302 299 297 294 294 294 295 295 294 294 293 293 292 291 291 290 290 289 289 289 289 288 288 287 286 285 285 285 285
313 307 303 300 301 301 300 299 299 298 297 295 294 293 293 292 292 292 291 291 291 290 289 290 289 289 289 289 290 289 288 287 287 286 286 285 285 284
301 299 298 296 295 296 295 295 293 293 293 293 292 289 288 288 288 288 288 288 288 288 288 288 288 289 289 289 288 288 288 287 286 286 286 286 286 285
294 294 294 293 292 292 292 291 289 287 286 286 285 285 285 285 284 282 283 285 287 287 287 288 288 288 286 288 287 286 286 286 286 286 286 286 286 286
290 291 291 291 290 287 285 284 285 285 284 284 284 284 283 282 282 281 281 283 284 284 285 284 285 285 285 284 285 286 284 285 285 286 286 286 286 286
287 286 286 285 282 282 284 285 285 284 283 282 283 283 283 283 283 283 282 282 281 282 282 282 282 282 282 283 282 283 284 283 283 285 287 287 287 286
283 282 282 281 280 281 281 280 279 281 282 283 283 283 283 283 282 281 281 280 280 279 279 279 279 279 280 281 282 281 282 283 283 284 286 287 287 286
284 283 282 281 281 281 279 279 280 281 281 282 282 281 281 281 280 279 279 279 279 279 279 278 278 278 278 279 280 281 281 282 282 283 285 287 287 286
282 282 282 282 282 281 281 281 281 280 279 279 280 279 279 279 278 278 278 278 277 278 278 278 278 278 278 278 279 280 281 282 282 283 284 287 287 287
283 283 283 283 283 282 282 281 280 279 279 278 277 277 277 276 276 277 276 276 276 276 277 277 277 277 277 277 278 279 279 280 281 283 284 286 287 287
284 283 283 282 281 280 280 279 278 278 277 276 275 275 275 275 275 274 274 274 275 275 276 276 276 276 276 277 277 279 280 281 282 281 281 286 287 287
281 281 280 279 278 278 277 277 276 276 274 274 274 273 273 272 272 273 273 273 274 274 274 274 274 275 277 277 277 277 277 276 276 278 279 287 287 287
278 278 277 277 276 275 275 274 273 273 273 272 272 272 271 271 271 271 271 271 272 272 272 272 273 274 274 275 274 274 274 275 276 278 280 285 286 285
276 275 275 274 273 273 272 272 272 271 271 271 270 270 270 270 270 270 270 270 270 271 271 272 272 272 272 273 274 275 275 276 277 278 278 280 285 285
273 273 272 272 271 271 271 270 270 270 270 269 269 269 269 269 269 269 269 269 270 270 271 271 271 271 272 273 274 274 275 275 276 276 279 283 286 286
271 270 270 270 270 270 269 269 269 268 268 268 268 268 268 268 268 268 269 269 269 270 270 270 271 271 271 271 272 273 274 276 276 276 281 284 284 284

GFSNE_925_thetae_093.txt.gz
Theta_e
319 321 321 321 321 321 321 321 321 317 316 321 321 321 321 320 319 319 318 317 316 315 314 314 312 311 309 308 307 306 304 303 301 300 300 302 303 303
322 322 321 321 322 322 323 322 322 321 320 320 320 320 319 319 319 318 318 317 315 315 314 313 310 308 307 306 304 304 301 298 298 297 297 297 297 299
322 321 322 321 322 322 322 322 322 322 320 320 320 320 319 319 319 317 316 315 315 315 313 312 309 305 304 304 302 299 299 298 297 296 296 296 297 298
322 322 322 322 322 322 322 322 322 322 320 319 319 319 319 318 317 316 315 313 314 313 311 307 306 304 304 301 300 300 298 297 297 296 296 294 293 292
322 322 322 322 322 323 322 322 323 322 322 319 319 317 316 315 313 312 311 309 306 305 303 303 302 301 301 301 299 298 294 292 290 289 288 287 286 286
321 321 322 322 322 323 323 323 323 321 320 317 314 310 306 305 304 303 303 302 302 301 300 300 300 299 297 296 295 293 294 292 290 289 289 289 288 288
322 322 323 323 323 323 323 322 321 319 316 310 302 300 298 298 298 298 297 297 297 297 296 296 296 295 295 294 294 293 291 291 290 289 289 289 289 288
323 322 320 319 318 317 318 318 314 310 306 302 296 295 294 294 294 294 294 293 293 294 293 292 290 289 290 291 290 290 290 290 289 289 289 289 289 288
321 319 313 308 306 307 305 304 302 301 300 299 295 293 291 291 291 291 290 290 290 290 289 288 288 288 288 288 288 288 288 288 289 288 287 287 288 288
313 309 305 300 300 300 297 295 293 293 293 293 292 291 290 289 288 287 286 285 284 284 284 286 286 285 285 285 286 286 286 286 286 285 284 285 285 286
298 297 297 294 293 294 294 290 287 285 284 284 284 283 283 283 283 283 283 282 282 283 282 282 282 281 281 282 284 283 284 283 282 282 282 282 283 282
290 290 290 289 288 289 288 286 284 283 283 283 283 283 283 283 282 282 282 281 281 281 281 280 280 279 279 280 281 280 280 280 279 279 280 280 281 283
285 285 285 286 286 285 285 283 283 283 283 283 283 282 281 281 280 280 280 279 279 279 279 279 279 279 279 279 279 278 278 278 278 278 277 278 280 281
283 282 281 281 282 282 282 282 282 282 282 281 280 279 278 278 278 278 277 277 277 277 277 276 276 277 277 277 277 277 278 278 278 278 278 279 278 279
283 283 283 282 282 282 281 280 280 280 280 279 277 276 276 276 276 275 275 274 274 274 274 274 275 275 276 276 276 276 276 276 277 277 277 277 277 278
283 282 282 282 281 281 280 279 279 278 277 276 276 275 275 274 273 272 272 272 272 272 272 273 273 273 273 273 273 274 274 275 275 276 274 274 275 276
282 282 282 281 280 279 278 277 276 275 275 274 274 273 273 272 272 271 271 271 271 271 271 271 271 271 271 272 272 273 273 272 272 272 273 274 275 276
281 280 279 279 278 277 276 275 274 273 273 272 272 271 271 270 270 270 270 270 270 270 270 270 270 271 271 271 271 271 271 271 272 272 273 274 275 275
278 277 276 275 275 274 273 272 272 271 271 271 270 270 269 269 269 269 269 269 269 269 269 269 270 270 270 269 270 271 271 271 271 272 272 273 274 274
275 274 273 273 272 272 271 271 271 270 270 270 269 269 268 268 268 268 268 268 268 268 269 269 269 269 270 269 270 270 270 270 271 271 272 272 273 274
272 272 272 271 271 270 270 270 269 269 269 268 268 268 268 267 267 267 267 267 267 268 268 268 268 268 269 269 269 269 269 270 271 271 272 272 274 275
271 270 270 270 269 269 269 268 268 267 267 267 267 267 266 266 266 266 266 266 267 267 267 267 268 268 268 268 269 269 269 269 270 271 272 273 274 275
269 269 268 268 268 268 267 267 266 266 266 266 266 266 265 265 265 265 265 265 265 266 266 266 266 267 267 268 268 269 269 270 270 272 273 274 275 275

GFSNE_925_thetae_096.txt.gz
Theta_e
315 318 319 319 320 320 321 321 319 315 313 319 320 319 319 320 320 319 318 317 316 315 314 316 316 314 313 312 313 312 309 308 306 305 305 305 305 305
319 320 318 317 319 321 321 321 321 320 317 319 319 319 319 319 320 320 320 319 318 318 317 317 316 315 314 314 313 311 309 306 305 303 302 299 301 301
319 320 320 319 320 321 321 320 320 320 319 320 320 319 319 319 319 319 319 319 318 317 316 315 313 314 314 310 308 307 306 304 302 299 298 297 298 299
319 320 320 320 319 320 320 321 321 321 320 319 319 320 319 319 319 319 318 317 315 313 313 312 311 309 307 305 303 302 302 299 299 297 296 294 292 292
320 320 320 320 320 320 320 321 321 321 321 320 320 319 318 318 317 314 312 310 309 308 307 306 303 302 302 301 301 299 298 297 293 295 294 292 290 289
320 320 320 320 320 320 321 321 321 321 320 319 318 316 312 308 307 305 304 302 303 301 301 301 300 300 299 298 297 295 295 293 293 292 292 290 289 289
319 319 320 320 320 320 321 320 320 319 319 317 310 302 300 299 299 298 298 297 296 297 297 297 297 296 296 295 295 294 293 291 291 290 290 290 290 290
320 320 320 320 320 320 320 320 318 317 316 309 300 297 295 294 294 295 294 294 293 293 292 293 292 291 290 289 288 289 289 289 288 288 288 287 287 287
320 320 319 314 312 311 310 310 308 307 306 303 297 294 292 292 291 290 289 289 289 287 286 286 285 285 285 286 286 286 286 286 286 285 284 284 284 285
318 318 316 311 305 303 302 300 296 295 295 294 293 291 288 286 286 285 283 283 283 284 283 284 283 282 282 283 283 284 283 283 282 281 280 281 281 282
309 306 303 299 295 295 296 290 287 284 284 284 283 282 282 283 283 284 283 283 282 282 281 280 281 279 280 281 282 282 280 279 279 279 279 279 279 279
295 293 293 292 290 289 288 285 284 283 283 283 283 283 283 282 281 281 280 280 280 280 279 279 279 278 278 279 279 278 277 277 278 278 278 279 278 279
287 286 287 288 289 288 286 285 283 283 283 283 282 281 280 279 278 278 278 278 278 278 277 276 276 276 276 276 276 276 277 276 275 275 276 277 278 277
283 283 283 283 283 284 283 283 283 283 282 280 279 278 277 276 276 275 275 275 274 274 274 273 274 274 275 274 275 275 274 273 274 275 276 275 276 276
283 283 283 282 282 282 281 281 281 280 278 277 276 276 275 275 274 273 272 272 272 272 272 272 272 272 271 272 272 272 272 273 274 272 272 272 272 273
282 282 281 280 280 279 279 278 277 277 276 276 275 274 273 272 271 271 271 270 271 271 271 270 270 270 271 271 271 272 272 272 271 271 271 272 272 273
281 281 280 279 278 277 276 275 275 274 274 273 272 272 271 270 270 270 270 269 269 269 269 269 270 270 270 270 271 271 271 271 271 271 271 271 272 272
280 279 278 277 276 275 274 274 273 272 272 271 271 270 269 269 269 269 268 268 268 268 268 269 269 269 269 269 270 270 270 270 270 270 271 271 271 271
277 275 275 274 274 273 272 271 271 270 270 270 269 269 268 268 268 268 267 267 267 268 268 268 268 269 268 267 269 270 270 269 270 270 270 270 271 271
274 273 273 272 272 271 271 270 270 269 269 268 268 268 268 267 267 267 266 266 267 267 268 268 268 268 268 268 268 268 268 269 269 270 270 270 271 271
272 271 271 271 270 270 269 269 269 268 268 267 267 267 266 266 266 266 266 266 266 266 267 267 267 267 267 267 267 267 268 268 269 270 270 271 272 272
270 270 270 269 269 269 268 268 267 267 267 267 266 266 265 265 265 265 265 264 265 265 265 266 266 266 266 267 267 267 267 268 269 269 271 272 273 274
269 269 268 268 267 267 267 266 266 266 266 265 265 265 265 264 264 264 264 264 264 264 264 264 264 265 266 266 267 267 267 267 268 270 272 275 274 274

GFSNE_925_thetae_099.txt.gz
Theta_e
315 314 314 314 314 316 317 318 317 315 314 319 319 320 320 320 319 319 319 319 319 319 318 316 315 314 313 314 313 314 313 312 312 313 312 312 310 308
314 313 315 316 317 318 319 319 319 318 317 319 319 317 317 318 318 318 319 319 319 319 318 319 318 316 314 315 315 314 313 312 311 311 310 308 305 304
315 316 316 318 319 318 317 318 319 319 317 319 319 318 319 319 319 319 319 319 318 318 318 319 316 315 315 313 313 312 310 309 308 307 306 303 302 300
315 316 317 316 319 319 319 319 319 320 319 318 318 318 319 319 319 319 318 317 317 317 316 314 311 313 311 309 308 307 305 303 302 300 298 298 295 294
316 316 317 318 318 319 319 319 319 319 319 318 318 319 319 319 318 318 317 315 311 309 308 306 306 305 305 304 302 301 300 299 298 295 294 294 294 294
316 316 316 318 319 319 319 319 319 319 319 317 317 318 318 316 314 310 306 304 303 301 300 300 299 299 299 298 296 295 295 294 293 293 293 292 292 290
318 318 318 318 319 319 319 319 319 319 318 318 318 314 310 306 305 303 301 300 296 296 296 295 295 294 292 292 292 291 290 290 290 289 289 289 289 289
316 317 319 319 319 319 320 320 319 317 317 317 315 305 301 300 299 298 296 294 293 292 291 290 288 287 286 287 285 285 286 286 286 286 285 285 285 284
316 316 316 317 317 316 314 312 310 311 312 312 306 296 293 292 293 292 292 291 289 285 285 285 285 284 283 283 283 283 283 283 282 282 281 281 281 280
315 316 317 317 314 309 306 303 299 297 296 297 294 290 289 289 290 286 284 283 283 283 282 282 281 281 281 281 281 281 280 280 279 279 279 280 280 280
312 314 313 312 306 302 301 295 287 284 284 283 284 284 284 283 284 285 283 284 283 280 280 279 279 278 279 280 280 279 279 278 277 277 277 278 278 278
304 303 301 299 292 290 290 285 284 283 283 283 283 283 282 281 281 282 281 281 281 280 276 277 277 276 276 278 278 277 275 276 275 274 275 275 276 277
292 289 288 288 287 287 287 286 284 283 282 281 280 279 279 278 277 277 277 277 277 277 274 274 275 274 275 275 275 274 275 273 272 273 274 275 275 275
285 285 284 285 286 286 285 284 284 283 282 280 278 277 276 275 274 274 274 273 274 273 273 272 273 273 272 272 272 272 271 272 272 273 273 272 272 272
283 283 284 284 284 282 282 281 281 280 278 277 275 275 274 273 273 272 272 272 271 272 271 270 270 271 270 271 271 271 271 272 272 272 271 271 271 271
282 281 280 279 279 280 280 279 278 277 276 275 274 273 272 271 271 271 270 270 270 270 270 270 270 269 270 270 270 271 271 271 270 270 270 270 271 271
280 279 279 278 276 276 275 275 275 274 274 273 272 271 270 270 270 269 269 269 269 269 269 269 269 269 269 269 269 270 270 270 270 270 270 270 270 270
279 278 277 276 275 274 273 273 272 272 271 271 270 270 270 269 269 268 268 268 267 268 268 268 268 268 268 269 269 269 269 269 268 269 269 269 269 270
276 275 274 274 273 273 272 271 271 270 270 269 269 268 268 268 267 267 267 267 267 267 267 267 267 267 267 266 267 268 268 268 268 268 268 269 269 270
274 273 272 272 272 271 270 270 269 269 269 268 268 267 267 267 266 266 266 266 266 266 267 267 267 266 266 266 267 267 267 268 268 268 269 269 269 270
272 271 271 271 270 270 269 269 269 268 268 267 267 266 266 266 265 265 265 265 265 265 266 266 266 266 266 266 266 266 267 267 268 268 269 269 270 271
270 270 270 269 269 268 268 268 267 267 267 266 266 265 265 265 265 265 265 264 264 264 264 265 265 265 265 266 266 266 266 267 268 269 270 271 271 272
269 269 268 268 267 267 267 267 266 266 265 265 265 264 264 265 264 264 264 264 264 264 264 263 263 264 264 264 265 265 265 266 267 269 276 275 276 276

GFSNE_925_thetae_102.txt.gz
Theta_e
315 313 312 314 315 316 317 316 317 317 315 317 318 318 319 318 318 318 318 318 318 319 319 319 318 316 317 318 316 314 313 314 313 314 314 314 313 313
313 312 312 315 315 315 315 315 315 316 316 318 319 319 319 319 317 317 317 318 318 318 318 318 318 316 318 318 316 315 314 313 313 313 313 312 312 311
313 314 314 315 315 314 316 318 318 319 317 317 318 318 319 318 318 318 318 319 319 318 318 318 318 317 317 316 313 312 312 310 309 309 309 308 306 304
315 314 314 315 314 314 317 319 318 317 317 317 317 318 318 318 318 318 318 318 318 318 318 317 316 314 310 309 308 307 307 305 304 303 303 303 301 299
315 315 315 315 316 317 317 318 318 318 318 317 317 318 318 318 318 318 318 316 314 312 312 311 310 306 304 302 301 300 299 298 297 296 295 294 294 293
315 315 315 316 315 316 317 317 317 318 317 316 316 317 317 316 316 315 312 308 304 302 301 299 299 298 297 296 295 295 294 293 293 292 291 291 291 290
314 314 315 315 314 315 316 318 318 318 317 316 316 316 315 311 309 309 305 301 295 295 294 293 292 291 290 289 289 289 287 287 287 287 287 287 286 286
315 315 314 314 315 317 318 318 318 317 317 317 316 314 312 310 308 303 299 294 293 292 290 288 287 284 283 283 284 284 284 284 284 284 283 282 282 281
315 316 316 317 317 317 317 316 314 314 314 312 310 305 300 299 298 294 294 292 286 285 285 284 284 283 283 283 283 282 281 280 280 280 280 279 279 279
314 315 315 314 314 314 312 307 302 301 300 302 300 294 292 292 293 291 288 285 283 283 284 283 281 281 281 281 281 279 279 279 279 277 276 276 277 277
313 314 314 314 315 312 307 298 289 285 283 285 285 285 285 286 286 286 285 285 283 279 279 280 278 278 278 279 279 278 278 276 275 274 275 275 276 277
309 309 309 310 309 304 301 293 284 282 282 282 282 283 283 283 284 283 282 281 281 280 275 277 277 275 276 277 277 276 274 274 273 273 274 275 275 274
300 296 295 295 291 289 289 286 283 282 281 280 279 278 278 278 278 279 278 278 278 275 274 274 275 274 274 275 274 273 273 272 272 272 272 272 272 272
286 286 286 285 285 286 285 282 281 281 279 277 276 275 275 274 274 273 273 273 273 273 272 271 273 272 272 272 272 272 271 271 272 272 272 271 271 271
286 283 282 281 280 280 280 281 281 280 278 276 274 273 273 273 272 272 272 272 271 271 271 271 271 271 271 271 271 271 271 271 271 271 270 270 270 270
280 279 279 279 279 280 280 278 277 277 276 274 273 272 271 271 271 270 270 271 271 270 270 269 270 269 270 270 270 270 270 270 270 270 270 269 270 270
279 280 279 278 276 276 275 275 275 274 273 272 271 271 271 270 269 269 269 269 269 269 269 269 269 269 270 269 270 270 270 270 269 269 269 269 270 270
278 276 275 275 274 273 273 272 272 271 271 271 270 270 270 269 269 268 268 268 268 268 268 268 268 268 268 269 269 270 269 269 268 268 269 269 269 270
275 274 274 273 273 272 271 271 270 270 269 269 269 268 268 268 268 267 267 267 267 267 267 267 267 267 267 267 267 269 268 268 268 268 268 269 269 270
274 273 272 272 271 271 270 269 269 269 268 268 267 267 267 267 267 266 266 266 266 266 267 267 266 266 266 266 266 267 268 267 268 268 268 268 269 270
272 271 271 271 270 270 269 269 268 268 267 267 266 266 266 266 266 266 266 266 266 265 266 266 265 265 265 265 266 266 267 267 267 268 268 269 270 272
270 270 270 269 269 269 268 268 267 267 267 266 266 265 265 266 266 266 265 265 265 264 264 264 265 265 265 265 265 265 265 269 270 269 270 271 271 272
269 269 268 268 268 267 267 267 267 266 265 265 265 265 266 266 265 265 265 265 264 264 263 263 264 263 264 264 264 264 264 266 267 272 278 276 278 277

GFSNE_925_thetae_105.txt.gz
Theta_e
317 316 315 313 311 311 314 316 317 321 320 318 317 318 318 317 317 317 318 317 317 318 318 318 318 318 318 318 316 317 318 317 314 313 314 314 314 314
316 316 315 314 312 312 315 315 315 317 320 317 318 317 318 319 319 318 318 318 317 317 318 318 318 318 318 317 316 317 317 317 315 313 312 312 311 312
315 316 315 314 313 315 314 314 315 315 318 317 316 317 316 316 317 318 318 318 318 318 318 318 318 317 317 317 317 317 316 315 313 311 309 308 309 309
314 314 314 314 314 313 314 315 314 315 317 318 317 317 316 316 317 318 317 317 316 317 317 316 313 312 311 311 311 310 308 308 305 305 303 303 302 299
313 314 314 313 314 314 315 315 315 316 317 319 318 318 318 318 318 318 317 315 313 312 310 307 304 302 300 299 299 298 296 295 295 294 294 294 294 293
314 314 314 314 313 314 315 315 315 316 316 316 317 317 317 317 316 315 313 311 307 303 299 297 296 295 294 292 290 291 289 289 288 288 288 287 288 288
315 314 315 314 314 314 315 315 316 316 316 316 316 316 317 315 314 313 311 308 298 295 294 292 291 290 289 287 287 286 286 286 285 285 284 284 284 283
315 315 315 315 315 315 315 315 315 316 316 316 316 315 316 315 313 310 306 296 292 292 290 286 287 285 285 284 284 284 284 284 283 283 282 281 280 279
315 315 315 314 314 314 315 316 316 316 316 316 315 314 312 311 306 300 298 293 285 285 287 283 283 283 283 283 282 281 280 280 279 278 277 276 276 277
316 316 315 315 315 315 313 310 307 305 304 304 303 301 299 299 297 296 293 288 283 284 285 282 281 281 281 282 280 279 279 278 276 275 275 276 277 277
314 314 315 315 314 314 312 304 296 289 285 288 287 287 288 290 289 289 285 285 282 278 281 281 279 279 279 280 279 279 277 275 274 275 275 275 276 275
310 310 311 311 311 311 307 301 289 282 283 284 285 285 285 285 286 286 285 283 281 279 277 280 278 277 279 278 277 276 275 274 274 274 274 275 274 274
301 299 299 299 294 290 291 287 283 281 280 280 279 279 280 280 281 281 282 280 279 276 274 277 275 276 275 276 275 275 274 274 274 275 274 274 273 273
290 287 286 288 288 288 284 280 280 280 279 277 276 275 275 274 274 274 274 274 274 273 273 274 274 274 274 274 274 274 274 274 274 274 274 274 274 274
285 283 282 281 280 279 279 281 281 280 278 276 274 273 273 273 273 273 273 272 272 272 272 272 272 272 273 274 274 274 273 274 274 273 274 274 274 274
278 279 279 279 279 280 280 279 278 277 276 274 273 272 272 272 272 272 273 272 272 271 271 271 271 271 273 273 273 274 274 274 273 273 273 273 274 274
279 279 278 277 276 275 275 275 274 274 273 273 272 272 271 271 271 271 271 272 272 272 272 271 271 271 272 272 274 274 273 273 273 273 272 273 274 274
280 278 278 277 276 275 275 274 273 273 272 272 272 271 271 271 270 270 271 271 272 271 271 271 271 273 273 273 271 272 272 272 272 272 273 273 274 275
278 278 277 276 275 274 273 272 271 271 270 270 270 270 270 270 270 270 270 271 271 271 270 270 271 271 273 275 272 270 270 271 271 272 273 273 273 275
277 276 275 274 273 273 272 271 270 269 269 268 268 268 269 269 269 269 269 269 270 270 270 270 270 269 270 270 270 271 269 270 271 271 272 272 273 275
273 273 272 272 271 270 270 269 268 268 267 267 267 267 267 268 268 268 268 267 268 269 270 270 268 266 268 269 271 271 271 269 269 269 270 272 276 278
271 270 270 270 269 269 268 268 267 267 267 266 266 266 266 267 267 267 267 268 268 268 268 268 268 268 269 269 269 269 270 270 271 272 273 272 275 280
269 269 268 268 268 268 268 267 267 266 266 266 266 265 265 266 266 266 266 266 266 267 267 268 268 268 268 268 267 269 269 270 272 274 277 276 277 279

GFSNE_925_thetae_108.txt.gz
Theta_e
318 318 318 319 318 316 315 319 318 320 321 319 320 320 320 320 319 317 317 319 316 317 317 317 318 318 318 318 318 317 317 315 315 316 316 316 315 314
319 318 318 318 317 315 316 316 318 318 319 317 317 321 321 319 320 318 319 319 318 317 317 317 317 318 318 318 318 317 315 314 315 316 314 312 312 312
317 317 317 316 315 313 314 314 316 317 317 316 318 319 318 318 319 320 320 320 320 318 318 317 317 317 317 317 316 315 315 315 312 310 308 307 305 303
316 316 316 315 315 315 315 315 316 316 315 316 316 317 317 317 317 317 318 317 316 317 316 315 314 315 315 314 313 310 307 305 304 303 301 299 297 296
315 315 314 315 315 314 314 316 317 316 315 315 316 316 318 317 317 317 317 315 312 310 308 308 308 306 303 300 298 297 296 295 294 293 292 292 292 292
314 314 314 315 315 314 314 314 314 314 315 316 316 316 317 318 318 317 314 310 305 300 299 300 297 294 292 291 291 290 290 290 290 290 290 288 287 286
314 313 313 314 314 314 314 314 314 315 315 315 316 316 316 317 316 316 314 310 300 297 295 292 292 291 288 288 288 288 287 286 285 285 284 283 282 281
313 314 313 313 314 314 314 313 315 315 315 315 315 315 315 315 316 315 312 301 293 293 291 287 288 286 285 285 285 284 283 282 281 280 279 278 277 277
314 314 314 314 314 314 315 314 314 315 315 315 315 315 315 315 314 311 305 299 291 288 288 283 284 284 283 283 283 282 281 280 279 276 276 276 276 277
315 314 314 314 314 314 314 314 312 310 309 309 308 306 305 306 302 302 301 293 286 284 285 283 282 281 282 282 282 281 280 277 276 276 276 276 276 276
316 316 315 315 315 314 314 308 297 292 288 289 287 287 290 293 294 293 288 286 282 279 282 282 280 280 281 282 281 279 277 276 276 276 276 276 276 276
317 315 316 316 316 316 311 303 289 284 284 283 285 287 287 286 286 286 286 283 281 280 280 281 280 280 282 280 280 278 278 277 276 276 276 276 276 276
303 301 303 307 308 301 300 293 286 282 281 282 282 282 282 283 283 283 284 282 279 277 278 279 278 278 278 278 277 277 277 278 277 277 277 277 276 276
293 291 290 293 292 292 291 287 284 284 281 280 278 277 277 276 276 277 277 277 276 276 275 277 276 277 277 278 278 278 278 277 277 277 277 277 277 277
285 283 281 281 280 279 278 279 281 280 278 277 275 275 275 275 274 274 274 273 273 273 274 274 275 274 275 277 278 278 277 277 277 277 277 277 277 278
279 279 279 279 279 280 281 280 279 278 278 276 276 275 274 274 274 274 274 274 274 273 273 273 273 274 276 277 277 278 277 277 277 277 276 277 278 278
281 281 281 281 281 280 279 278 278 278 278 276 276 275 274 274 274 274 274 275 275 275 275 274 274 274 274 274 277 277 276 277 276 276 276 278 278 279
283 283 283 282 281 280 279 278 277 277 276 276 275 275 275 274 274 275 275 275 275 275 275 274 275 277 277 276 275 275 275 275 275 276 277 277 278 279
282 281 281 280 280 278 277 276 276 275 275 275 275 275 274 274 275 275 275 275 275 275 274 274 275 275 278 279 276 274 274 274 275 276 276 277 277 279
280 280 279 278 277 276 275 275 274 274 274 274 274 274 274 274 274 274 274 275 275 274 275 274 274 273 274 275 274 274 274 273 274 275 276 276 277 279
277 277 276 275 275 274 274 273 273 273 272 272 272 273 273 273 273 273 271 271 273 274 275 274 272 270 271 273 275 276 274 274 273 273 274 275 278 281
275 274 274 274 273 273 272 272 272 272 272 272 271 272 272 272 272 272 272 273 273 273 273 273 272 272 273 273 274 273 274 274 275 276 276 276 277 282
273 273 273 272 272 272 272 272 271 271 271 271 270 270 271 271 271 271 271 271 271 272 272 272 273 273 273 273 272 274 274 275 276 277 280 279 279 279

GFSNE_925_thetae_111.txt.gz
Theta_e
319 320 319 319 320 320 318 318 320 322 321 320 320 319 320 320 319 320 320 320 319 318 317 316 316 316 315 315 316 316 316 317 316 315 314 313 314 315
319 319 319 319 319 319 316 320 319 319 322 319 320 321 321 321 321 321 321 320 319 319 317 317 317 317 317 317 317 317 316 316 314 312 311 311 311 311
319 318 318 319 318 318 318 317 316 318 318 318 319 319 320 319 319 319 320 321 320 319 318 318 318 317 316 315 314 314 313 312 311 309 306 304 301 299
319 319 318 318 317 318 318 318 316 316 317 318 318 318 318 317 317 317 317 318 318 317 317 316 314 313 312 312 311 311 310 309 307 304 300 297 294 294
318 318 318 317 316 315 314 315 315 316 317 316 316 317 316 316 317 317 317 317 314 313 312 309 310 310 308 306 306 304 300 297 295 294 293 293 292 291
317 317 316 316 316 316 315 315 314 315 316 316 316 316 315 315 315 317 314 314 308 305 300 304 298 297 297 295 293 291 291 291 291 291 290 289 286 283
315 316 316 315 315 315 314 314 314 315 315 316 316 315 315 316 317 316 316 310 299 300 299 295 294 292 290 289 288 287 287 287 287 284 282 281 281 280
314 314 315 314 314 313 312 315 314 314 315 315 315 315 315 315 315 315 315 303 296 299 295 290 290 287 287 286 286 286 286 285 283 280 278 278 277 277
313 314 314 313 314 313 314 314 314 314 314 314 315 314 314 314 314 314 313 306 297 291 291 284 285 285 284 284 284 284 283 281 278 277 277 277 277 277
314 314 314 314 313 313 314 313 312 311 311 312 311 310 310 310 308 308 306 297 289 287 287 283 283 283 283 283 283 283 281 278 276 277 277 277 277 277
315 314 314 314 313 314 314 311 302 298 295 298 298 296 297 298 298 297 296 291 283 282 284 282 281 282 282 283 282 282 278 277 277 277 277 277 277 277
313 312 314 314 314 314 314 310 296 290 290 288 288 289 290 289 290 291 289 288 282 281 281 281 281 282 283 282 282 279 279 278 278 278 278 278 278 278
305 303 303 306 312 311 306 297 290 285 285 286 285 284 285 285 285 285 286 285 284 279 280 281 280 279 280 280 279 278 278 279 278 278 278 278 278 278
292 291 291 295 296 296 295 290 288 288 284 282 281 280 279 279 279 280 281 282 281 280 279 279 278 279 280 280 279 279 279 279 278 278 278 278 278 279
285 282 283 286 285 282 280 281 284 283 281 280 278 278 277 276 276 276 276 275 275 275 276 276 277 276 278 279 279 279 279 278 278 278 278 278 279 279
282 282 281 280 280 281 281 281 280 280 279 279 278 278 278 278 277 277 277 277 276 275 275 275 275 276 278 278 278 279 278 278 278 278 278 279 280 280
282 283 282 282 281 281 281 281 280 280 280 280 279 278 277 277 277 277 278 278 278 278 277 277 277 276 276 276 279 278 278 278 278 278 278 279 280 281
285 285 284 283 283 282 281 281 280 280 279 278 278 278 278 278 278 278 278 278 278 278 278 277 278 279 279 278 277 277 277 277 277 278 279 279 280 281
283 283 283 282 282 281 280 279 278 278 278 278 278 278 277 277 278 278 278 278 278 277 277 277 277 278 280 281 278 276 276 276 276 277 278 278 279 279
282 282 281 280 280 279 278 278 277 277 277 277 277 277 277 277 277 277 278 278 277 277 277 277 276 275 276 276 276 276 276 275 276 276 277 277 277 279
280 279 279 278 278 278 277 277 276 276 276 276 276 276 276 276 276 275 274 274 275 276 277 276 275 273 273 275 277 277 276 276 275 276 276 277 278 281
277 277 277 277 276 276 275 275 275 275 275 275 275 275 275 275 275 275 275 276 275 275 275 275 275 275 275 276 276 276 277 276 277 278 278 278 278 282
276 276 276 276 275 275 275 275 274 274 274 274 274 274 274 274 274 274 274 274 273 274 274 274 275 275 276 276 275 276 276 277 278 278 279 280 279 279

GFSNE_925_thetae_114.txt.gz
Theta_e
319 320 320 320 320 320 316 318 319 318 317 318 319 319 318 317 320 320 319 319 318 318 317 316 316 316 316 315 315 315 315 314 314 315 315 313 312 311
319 320 320 320 320 319 319 320 319 318 317 319 319 318 319 319 319 318 319 320 320 320 319 318 318 316 315 315 315 315 315 316 315 314 313 312 311 310
319 320 319 320 320 317 318 319 318 319 317 319 319 320 320 320 320 321 320 320 320 319 319 318 316 317 317 316 316 315 313 312 311 310 308 306 303 299
319 319 319 319 319 318 319 318 317 317 316 318 319 319 318 318 318 317 316 317 316 318 317 316 316 315 315 314 312 311 310 309 308 307 304 300 296 295
319 319 319 319 318 318 318 318 317 317 316 316 317 318 318 317 317 317 317 315 315 314 314 313 312 310 309 308 306 306 303 300 297 295 294 293 293 293
319 319 319 318 317 317 317 316 317 315 317 316 316 315 316 316 316 316 314 313 309 311 305 302 302 298 299 299 297 296 294 292 292 292 292 290 289 286
317 318 318 318 318 317 316 316 316 315 315 315 315 315 316 315 315 315 315 311 306 305 299 295 294 293 291 289 290 290 290 291 291 287 284 280 279 278
316 317 317 317 317 317 316 316 315 315 315 315 314 314 315 315 315 315 315 304 297 299 297 292 290 289 289 287 287 287 287 286 282 281 281 279 278 278
315 315 316 315 315 316 315 315 315 314 314 314 314 314 315 315 315 315 314 312 303 295 294 287 287 286 285 285 285 284 284 283 278 278 278 278 278 278
314 314 315 314 314 314 314 313 313 313 313 313 313 313 312 312 312 311 311 302 292 289 289 284 284 283 284 284 284 283 281 279 278 277 277 277 278 278
314 314 314 314 314 313 313 311 306 303 302 306 306 305 302 301 300 300 299 295 285 284 286 285 283 282 283 283 283 282 280 278 278 278 278 278 278 278
314 313 314 314 314 314 313 311 302 293 294 292 292 292 293 293 293 294 293 293 285 282 283 283 282 283 282 283 282 280 279 278 279 279 279 279 279 279
304 304 305 309 312 311 311 306 300 290 287 289 288 287 287 287 286 287 288 289 286 281 282 283 281 282 282 281 279 278 278 279 278 278 278 279 279 279
293 291 291 297 299 299 298 294 290 290 287 284 282 280 280 280 281 282 283 284 283 282 281 283 280 281 280 279 279 279 279 279 278 278 279 278 278 279
286 284 285 287 286 284 283 284 286 284 282 281 278 278 278 278 279 279 279 280 279 278 278 278 279 279 279 279 279 279 279 278 278 278 278 278 279 280
283 282 282 282 282 282 282 282 282 282 280 279 279 278 278 278 278 277 277 276 276 275 276 276 277 279 278 278 279 279 278 278 278 278 278 279 280 280
282 282 282 282 282 281 280 280 280 280 279 279 278 278 278 277 278 278 279 278 278 277 277 277 278 277 277 278 279 278 277 278 277 277 278 279 279 281
284 284 283 282 282 281 281 280 279 279 279 278 278 278 278 278 278 279 279 278 278 278 278 278 278 279 278 277 277 277 276 276 276 276 278 278 278 279
283 283 282 281 281 280 279 278 278 279 279 278 278 278 278 278 278 278 278 278 278 277 277 277 277 277 278 274 277 277 276 276 276 276 276 276 277 278
281 280 280 279 279 278 278 278 278 278 278 278 278 278 278 278 278 278 278 278 277 277 277 276 275 274 275 275 275 277 277 276 276 276 276 276 276 277
279 278 278 278 277 277 277 277 277 277 277 277 277 277 277 276 275 275 275 276 276 276 276 275 275 275 275 275 276 277 276 277 276 276 277 276 277 278
277 277 277 276 276 276 276 275 275 275 275 275 276 276 275 275 275 275 275 275 275 275 275 275 275 275 275 276 276 275 276 276 277 278 278 278 278 278
276 276 276 275 275 275 275 275 274 274 274 274 274 274 274 274 274 274 274 274 273 274 273 274 275 275 275 276 276 276 275 276 277 277 277 278 280 279

GFSNE_925_thetae_117.txt.gz
Theta_e
321 321 321 320 321 320 319 318 318 319 320 318 319 320 319 319 318 319 319 318 318 318 318 317 317 316 316 316 315 315 315 314 314 314 314 314 313 313
320 320 320 320 321 320 319 317 317 318 318 318 318 318 318 319 318 319 319 319 318 318 318 318 318 317 317 317 316 315 315 314 314 313 312 311 311 311
319 320 320 320 320 320 319 318 317 318 317 317 318 318 319 318 318 319 319 319 319 320 320 319 318 318 317 316 316 315 315 314 312 312 311 309 308 304
319 319 320 320 320 320 318 317 317 318 317 318 318 319 318 318 318 318 319 319 319 319 318 318 318 317 316 315 312 312 311 311 310 309 307 304 300 297
319 319 319 319 319 319 319 318 318 318 317 316 317 318 318 318 318 317 317 316 315 315 315 315 315 315 312 308 307 307 305 304 303 301 298 297 296 294
319 319 319 319 319 318 318 317 318 317 317 316 317 317 318 317 317 316 313 311 311 309 307 306 305 301 301 301 299 297 297 293 292 292 291 292 290 286
319 319 319 319 319 319 318 317 317 317 316 316 316 315 316 316 316 315 313 310 304 305 300 296 295 295 291 291 290 290 289 290 290 288 284 283 281 279
318 318 319 319 318 318 318 318 318 316 315 315 315 314 315 315 315 315 314 304 298 299 296 291 291 291 289 288 287 287 287 286 283 282 279 278 278 278
316 316 317 318 318 317 317 316 316 316 315 315 314 314 315 315 314 315 314 311 304 297 295 288 288 287 286 286 285 285 285 282 281 281 280 279 278 278
315 315 316 316 316 316 314 312 313 313 313 314 314 314 313 314 314 314 313 307 296 292 292 285 285 284 285 285 284 283 282 282 278 279 278 278 279 279
314 314 314 315 315 315 314 311 308 306 307 311 311 310 309 309 308 306 303 296 287 287 288 286 284 283 283 283 282 282 282 279 280 279 278 279 279 279
311 312 313 314 314 314 313 311 304 297 298 297 297 296 297 298 299 299 298 296 287 284 286 285 283 283 282 282 282 281 280 279 279 279 279 279 279 279
306 306 308 312 312 312 312 309 305 295 290 292 292 291 291 291 291 292 293 293 290 283 284 285 283 283 283 281 281 279 279 279 278 278 278 279 279 279
295 294 294 302 305 303 302 298 293 291 290 288 286 283 284 285 285 286 287 288 288 287 284 285 283 283 281 280 279 278 279 278 278 278 278 278 279 279
287 284 284 287 289 287 286 287 289 288 286 283 280 280 281 281 282 282 282 282 282 282 283 283 283 281 280 279 279 279 279 278 278 278 278 279 279 280
283 283 283 283 283 283 284 284 284 283 282 280 279 279 279 277 277 277 276 276 276 276 277 279 279 279 278 279 279 278 278 278 278 277 278 278 279 280
283 283 282 282 281 281 280 280 280 280 280 279 279 278 278 278 278 278 277 277 277 277 278 277 277 278 278 278 277 277 277 277 277 277 277 278 278 280
283 282 281 281 280 280 279 279 279 279 278 278 278 278 278 279 278 278 278 277 278 278 278 278 278 278 277 277 277 277 276 276 276 275 276 276 277 278
281 280 279 279 278 278 278 278 278 278 278 278 278 278 279 279 278 278 278 277 277 277 277 277 277 279 276 272 277 277 277 277 276 276 276 276 275 276
279 278 278 278 278 278 278 278 278 278 278 278 278 278 278 278 278 278 277 277 277 276 275 275 275 275 275 275 275 276 276 276 276 276 276 277 277 278
277 277 278 278 277 277 277 277 277 277 277 277 277 277 277 277 276 276 276 276 276 275 275 275 275 275 275 275 275 276 276 276 276 276 277 277 277 278
276 275 275 276 275 276 276 276 276 276 276 275 275 275 275 276 275 275 275 275 274 274 274 275 275 275 275 276 276 275 275 275 276 277 277 277 278 277
275 275 275 275 275 275 275 274 274 274 274 274 274 274 274 274 274 274 274 273 273 273 273 273 274 274 275 274 275 274 274 275 276 274 275 275 277 279

GFSNE_925_thetae_120.txt.gz
Theta_e
323 323 322 321 321 321 320 321 321 321 320 319 319 320 320 319 320 319 319 319 319 319 318 317 317 316 316 316 316 315 315 315 314 314 314 315 314 313
323 322 321 321 321 321 320 320 320 319 320 319 319 319 318 319 319 319 318 318 319 319 318 318 318 317 317 316 316 316 316 315 315 314 313 311 310 309
322 321 320 321 320 320 320 319 319 318 318 318 319 318 319 319 318 318 318 319 318 318 318 317 317 317 316 317 317 315 315 313 311 309 308 308 307 307
321 320 320 320 320 320 319 318 318 317 317 317 318 317 319 318 319 318 317 316 317 318 318 318 317 317 316 317 316 316 314 310 307 306 304 301 300 298
320 320 320 319 320 319 318 318 317 317 317 317 317 318 318 318 317 316 316 315 315 315 316 317 317 316 314 313 312 312 309 308 306 303 302 299 296 295
320 319 319 320 319 319 319 318 317 317 317 316 317 317 318 316 316 315 310 310 308 310 312 313 310 307 305 304 305 303 301 298 297 296 295 294 293 290
319 319 319 319 319 319 318 318 317 316 316 316 316 316 317 315 314 312 309 308 305 307 305 300 300 299 296 296 295 294 294 293 292 292 292 290 287 284
319 319 319 319 319 319 319 318 318 317 316 316 315 315 315 316 315 314 311 303 299 301 300 294 294 293 292 291 290 290 290 290 290 288 285 281 281 281
319 318 318 319 319 319 318 317 317 317 316 316 315 315 315 316 315 314 314 311 307 302 298 290 289 290 288 287 288 287 287 287 284 284 285 282 280 279
317 317 317 317 317 317 316 315 313 313 315 315 315 314 315 315 315 315 314 309 300 294 293 286 286 286 285 285 284 284 284 284 283 280 279 279 279 279
315 315 315 316 316 315 313 310 307 307 308 313 313 313 314 314 313 313 310 301 289 289 290 289 284 283 283 283 283 283 283 284 281 279 279 279 279 279
312 314 314 314 315 315 314 310 305 299 302 304 304 306 304 304 306 305 305 299 289 286 288 289 284 284 282 282 282 282 282 280 279 279 279 279 279 279
308 308 311 313 313 313 313 311 308 301 296 297 295 295 295 295 296 296 297 298 295 288 287 288 284 284 283 281 281 281 280 279 278 279 279 279 278 279
300 299 300 305 307 307 306 305 302 297 293 292 291 288 289 289 289 290 290 291 292 292 286 287 284 284 282 280 280 279 279 279 278 278 278 278 279 279
293 288 289 293 295 295 292 292 293 293 290 287 283 282 283 283 285 286 286 286 285 284 285 286 285 285 284 279 278 278 278 278 278 278 278 278 279 279
285 286 287 286 285 283 284 286 287 287 286 282 281 281 281 281 281 281 281 281 280 279 280 281 282 282 279 279 279 278 278 278 277 277 277 278 279 279
283 283 283 283 282 281 281 281 281 282 281 280 279 278 277 277 277 277 277 277 277 277 278 278 278 279 279 279 278 278 278 277 276 276 276 277 278 279
283 281 281 280 280 280 280 279 280 280 279 279 278 278 278 278 277 277 278 278 278 278 277 276 278 278 278 277 277 277 276 276 276 276 276 276 276 277
280 279 279 279 279 279 279 278 278 278 278 278 278 278 278 278 278 278 278 278 277 276 276 278 278 278 275 272 276 276 277 276 276 276 276 276 276 277
278 278 278 278 278 277 277 277 278 278 278 279 279 278 278 278 277 277 277 277 276 275 275 275 275 276 276 274 276 276 276 275 276 276 276 277 277 278
276 276 277 277 277 277 277 277 278 278 278 278 278 278 278 277 276 276 276 276 275 275 274 274 275 275 275 275 275 275 275 275 275 276 277 277 277 277
276 276 276 277 277 277 277 277 276 276 276 276 276 276 276 276 275 275 275 275 274 274 274 274 275 275 275 275 275 274 274 274 275 276 276 275 275 277
275 275 275 275 275 275 276 275 275 275 275 275 275 275 275 275 274 274 274 274 273 273 273 274 274 274 274 274 274 274 274 274 274 274 274 274 275 275

GFSNE_925_thetae_123.txt.gz
Theta_e
325 324 323 322 323 323 322 322 322 321 321 320 320 321 319 320 320 319 318 318 319 318 317 315 315 317 317 317 318 318 318 317 316 315 314 315 315 314
325 324 322 322 323 322 321 321 321 321 321 319 319 320 319 320 320 319 319 319 319 319 318 317 316 315 315 315 316 316 316 315 315 314 314 314 312 310
324 322 321 322 322 321 321 320 320 320 319 318 319 318 318 319 319 319 319 319 319 318 318 318 317 317 316 316 316 316 315 316 316 315 310 310 309 308
323 320 321 322 321 321 320 320 319 319 319 318 318 318 318 317 318 318 318 317 317 318 318 318 318 317 317 316 316 316 315 313 315 311 309 308 307 306
322 319 321 321 320 320 320 320 319 319 319 318 318 318 317 317 315 313 313 314 314 315 316 316 316 316 316 316 315 315 313 313 311 309 307 306 304 300
320 321 320 320 320 320 319 319 318 318 317 317 317 317 316 313 314 312 308 310 310 311 313 314 313 312 313 312 309 310 309 307 306 303 300 297 296 294
320 321 320 321 320 320 319 318 318 317 316 316 316 317 316 311 311 308 306 306 304 304 305 305 306 304 301 301 303 301 299 298 297 296 295 293 292 289
320 320 320 320 319 319 319 319 318 317 316 315 316 316 316 315 312 310 303 299 298 299 301 298 296 298 298 295 295 293 293 293 293 292 291 288 284 284
319 319 319 319 319 319 319 319 318 317 317 316 315 315 314 315 313 310 308 305 305 302 300 292 292 293 291 290 290 290 290 289 289 287 286 285 282 280
319 319 319 319 319 319 318 316 315 316 316 316 316 315 316 316 316 314 310 306 303 299 298 288 288 287 287 287 287 287 287 287 286 285 283 281 279 279
318 318 318 318 317 317 316 312 309 309 311 315 315 315 315 315 316 315 309 304 291 292 292 292 285 284 284 284 283 284 284 284 284 282 280 280 280 279
314 315 315 316 316 316 315 310 305 304 306 306 308 310 309 310 310 311 313 304 292 288 291 291 284 285 283 283 283 282 283 282 281 280 280 280 280 279
311 311 313 314 314 313 313 311 310 304 299 301 301 301 302 302 303 303 302 303 298 291 290 291 285 285 283 282 281 282 282 281 280 279 279 279 279 279
306 304 307 311 308 307 308 307 306 302 298 297 295 292 294 294 294 295 295 295 295 295 290 290 285 285 282 281 281 281 280 279 278 278 278 278 278 279
299 295 296 299 300 298 296 295 296 295 294 291 286 285 286 286 287 288 289 289 288 286 286 288 289 286 286 282 280 280 279 278 278 278 278 278 279 279
290 289 290 290 291 288 287 289 289 289 288 284 282 282 282 283 285 285 285 285 284 282 284 285 285 286 282 281 280 278 278 278 278 277 277 277 278 279
285 285 284 284 283 283 283 284 284 285 284 281 280 280 280 280 280 281 282 281 278 277 278 279 280 280 279 279 278 278 277 277 277 276 276 276 277 278
283 281 281 280 280 280 280 280 280 280 280 281 280 279 279 278 277 277 278 278 277 277 278 278 278 278 278 277 277 277 276 276 276 276 276 276 276 277
280 279 279 279 279 279 279 279 278 279 279 279 279 278 277 277 277 277 277 277 277 277 277 278 278 278 275 273 276 277 276 275 275 276 276 276 276 277
278 277 277 277 277 277 277 278 278 279 279 278 278 277 277 277 277 277 276 276 275 275 275 276 277 278 278 275 276 276 275 275 276 276 275 276 276 276
276 276 276 276 277 277 277 278 278 278 278 278 277 277 277 277 276 276 276 275 275 275 274 274 275 275 275 275 275 275 275 275 275 275 275 275 275 275
275 275 276 276 276 276 277 277 277 277 277 277 277 276 276 276 276 276 275 275 275 275 274 275 275 275 275 275 274 274 274 274 274 275 274 274 274 274
275 275 275 276 276 276 276 276 276 275 275 275 275 275 275 275 275 274 274 274 274 274 274 274 274 274 274 273 273 273 273 273 272 273 273 273 273 276

GFSNE_925_thetae_129.txt.gz
Theta_e
331 331 330 328 327 327 325 324 324 326 324 322 323 322 323 323 322 321 320 319 320 319 318 316 316 317 317 316 316 317 316 317 317 317 318 318 318 316
331 330 328 328 326 326 326 324 323 324 325 321 322 322 321 322 322 320 321 320 319 319 318 317 316 317 317 316 316 317 317 317 318 318 318 317 316 315
329 328 327 327 326 325 325 324 323 322 324 323 322 321 321 321 320 320 321 319 318 319 318 317 317 317 316 317 317 318 319 318 318 317 315 315 314 314
326 326 325 325 325 324 324 323 321 321 323 322 319 319 320 320 320 321 320 319 319 318 319 318 318 317 317 315 315 316 316 315 315 315 315 314 313 311
325 325 323 324 324 323 323 322 321 321 321 321 318 318 319 320 319 318 319 318 318 318 319 318 317 317 317 316 316 315 314 314 315 315 314 312 311 310
326 324 324 323 324 323 322 321 320 320 320 320 318 318 316 314 315 312 310 313 313 312 315 315 316 316 317 316 315 314 315 315 314 314 312 311 310 306
325 324 324 324 324 324 322 320 320 320 319 318 318 317 313 309 310 309 306 307 304 305 308 308 309 309 310 311 314 314 314 313 311 310 308 304 299 299
324 323 323 323 323 323 323 320 320 320 319 319 318 317 314 313 310 308 302 299 298 300 304 300 302 302 301 304 305 306 307 307 306 301 299 298 297 296
323 322 321 322 323 321 320 319 320 319 320 319 318 317 315 313 311 307 307 304 302 299 302 292 294 296 292 296 294 298 300 297 297 296 296 295 294 293
323 322 321 320 321 321 319 319 319 319 319 319 318 317 317 316 315 313 311 304 301 299 301 291 290 291 291 290 291 292 292 293 293 293 293 292 290 288
321 321 320 320 321 319 318 318 317 316 317 317 317 317 317 316 315 311 303 301 293 293 297 294 288 287 287 287 286 288 289 289 289 289 288 287 285 281
319 319 320 320 320 318 319 318 311 312 313 313 314 315 315 315 314 313 311 305 298 292 295 294 286 287 284 284 284 284 284 285 285 285 285 282 280 281
317 318 319 319 319 319 319 318 317 316 309 308 308 308 309 309 308 308 308 308 302 301 300 299 288 288 285 283 283 283 283 282 282 282 281 281 280 281
314 316 316 317 318 317 316 316 315 310 303 300 300 298 298 299 300 302 303 304 303 305 299 297 291 290 284 282 282 281 282 282 281 281 280 279 279 278
310 308 310 311 311 305 305 304 304 302 298 294 291 290 290 291 293 295 295 296 297 293 291 293 295 289 290 283 281 281 280 280 280 279 280 279 280 280
291 293 295 298 299 293 293 294 295 294 293 288 286 285 286 286 288 288 288 288 288 286 289 291 291 290 285 283 281 280 280 280 279 279 279 279 279 280
287 288 288 287 286 286 286 287 287 288 288 284 283 282 282 283 284 285 286 285 281 280 281 284 286 286 283 281 280 279 279 279 279 279 278 278 278 279
283 281 281 282 282 281 281 281 282 282 282 282 282 282 281 281 281 281 281 280 279 279 279 279 280 279 279 277 278 279 279 278 278 278 278 279 279 278
278 278 278 278 279 279 279 279 279 280 281 281 280 280 280 280 280 279 279 279 279 279 279 279 280 281 281 280 277 277 278 278 278 278 278 278 279 279
276 276 276 276 276 277 277 277 278 278 279 279 279 279 279 279 279 279 279 279 278 278 278 279 280 281 281 281 279 276 276 277 278 277 278 277 277 276
274 275 275 275 276 276 276 277 277 277 277 278 278 278 278 278 277 277 277 278 278 278 277 276 276 277 277 278 277 276 275 275 276 277 276 277 277 277
272 272 273 274 275 275 276 276 276 276 277 276 276 276 276 276 277 277 277 276 276 276 276 276 276 277 277 278 277 276 275 274 273 273 273 273 275 277
271 273 274 274 274 275 275 274 274 274 274 275 275 275 275 275 275 276 276 275 276 276 275 275 275 276 275 276 276 275 273 274 274 274 274 271 271 271

GFSNE_925_thetae_132.txt.gz
Theta_e
333 335 335 334 333 333 331 331 331 331 333 327 327 326 327 325 323 323 323 323 322 320 320 319 318 318 318 317 316 315 315 315 315 315 317 318 318 319
333 333 335 335 333 333 331 330 329 330 330 328 327 326 325 323 323 323 323 322 321 320 317 318 319 318 317 316 316 316 316 316 316 316 317 318 318 318
332 332 333 333 333 331 331 330 329 328 330 328 326 325 325 322 322 322 322 321 321 319 318 318 319 317 317 317 317 316 316 316 317 317 318 318 318 316
330 329 330 331 332 331 328 328 329 327 326 328 326 325 325 324 321 321 321 321 319 319 319 318 318 318 317 317 317 317 317 317 317 318 318 317 315 315
328 329 328 329 330 330 327 327 328 326 324 324 325 324 323 321 320 319 318 320 320 320 319 319 318 318 317 317 316 316 317 318 318 317 316 314 314 313
326 328 328 328 330 329 326 326 326 324 323 323 323 321 319 319 320 317 313 314 317 318 318 318 318 319 318 317 317 316 315 315 315 314 314 314 313 312
324 326 326 326 328 327 326 325 324 323 322 322 322 321 315 313 313 312 309 308 305 311 312 315 316 317 316 317 316 316 316 315 314 313 313 312 311 310
325 324 325 325 326 326 325 325 324 324 322 321 322 321 317 315 313 310 305 300 300 301 305 304 305 306 310 311 310 313 312 314 313 313 310 308 304 302
325 324 324 325 325 325 324 324 323 323 323 321 321 320 318 317 314 308 306 305 304 303 303 293 295 298 298 299 302 300 303 306 301 302 303 300 298 297
324 324 324 324 324 323 322 322 321 321 320 321 322 321 319 317 316 314 309 303 301 298 302 291 291 291 292 292 293 295 296 294 298 295 296 296 293 292
324 324 324 323 322 323 321 317 319 320 320 320 320 320 319 319 317 312 305 301 293 294 298 293 290 287 288 289 289 291 292 292 292 292 292 290 289 288
322 323 323 323 322 322 319 316 313 316 318 317 318 318 318 317 317 316 311 304 296 293 295 293 287 288 285 285 285 286 286 287 287 287 287 286 285 282
318 320 322 322 321 321 319 316 317 318 316 314 312 313 314 314 313 311 310 308 302 301 300 300 289 288 286 284 284 284 284 283 283 283 283 282 284 283
309 317 319 320 319 319 317 318 318 316 312 306 305 303 304 304 304 305 305 305 305 306 304 299 292 291 285 284 283 283 283 282 282 282 282 281 280 281
299 305 307 314 316 315 313 316 314 310 303 298 296 295 296 296 297 298 298 300 300 298 295 295 296 290 290 284 282 282 281 281 281 281 281 281 281 281
289 290 292 293 300 298 298 299 300 301 300 296 291 291 289 289 290 291 291 290 291 288 290 292 292 291 287 284 283 281 281 281 281 281 281 282 282 282
288 286 287 288 287 288 288 290 291 291 292 289 287 285 285 286 286 286 287 287 283 281 282 284 286 287 285 282 281 281 281 281 281 281 281 281 281 282
281 280 280 280 281 282 282 283 283 284 285 285 284 283 283 283 283 283 284 282 281 280 280 280 281 281 280 280 281 281 281 281 280 280 281 281 281 281
277 277 277 278 278 279 279 279 280 280 282 281 281 281 282 281 281 281 281 281 281 281 281 282 283 283 283 281 278 280 281 280 280 280 281 282 282 281
276 277 277 277 277 277 278 278 279 279 279 280 280 280 281 281 281 281 280 280 280 281 281 282 283 283 282 281 280 278 280 281 281 281 280 280 279 278
274 275 275 277 277 277 277 277 278 278 279 279 279 279 280 280 280 281 281 281 281 280 279 279 279 281 280 279 278 277 277 278 279 280 279 280 280 280
272 272 273 274 275 276 277 277 277 278 278 278 278 279 279 280 280 280 280 280 279 278 278 278 279 280 281 280 279 277 277 275 274 274 274 276 278 281
270 270 271 273 274 274 275 276 276 276 277 277 277 278 278 278 278 278 278 278 278 278 278 278 278 279 279 279 279 277 276 277 277 277 275 272 272 272

GFSNE_925_thetae_135.txt.gz
Theta_e
329 329 332 330 334 335 334 333 333 335 335 332 331 329 329 328 326 327 326 325 324 322 322 322 322 321 319 317 316 316 316 315 315 315 314 314 314 315
332 333 333 333 334 334 334 334 333 333 332 330 331 329 329 328 327 325 325 324 323 323 323 322 322 321 320 318 317 316 316 315 314 315 315 314 317 318
333 332 332 332 333 334 333 333 333 332 332 332 331 328 328 328 325 325 324 325 323 323 323 322 322 320 319 318 318 317 316 315 315 315 316 316 317 318
331 332 333 333 334 334 333 333 333 332 332 333 331 329 328 328 326 323 322 322 322 323 323 321 321 318 317 318 318 317 317 316 316 316 316 317 317 318
329 329 330 331 331 331 332 332 332 332 331 331 331 329 327 326 324 323 321 321 321 321 322 321 320 316 316 318 318 317 317 317 316 316 317 317 317 317
322 326 328 328 329 329 330 330 330 331 330 329 329 328 325 323 323 321 318 319 319 319 321 321 318 318 318 318 318 317 317 318 317 317 317 317 317 316
320 322 324 327 327 326 328 329 329 329 328 327 326 325 322 317 318 317 315 314 313 315 317 318 319 319 319 318 318 317 316 316 317 317 317 317 315 313
311 315 324 324 325 325 328 328 326 327 326 325 324 324 321 318 317 314 312 304 303 308 309 309 311 316 317 317 318 318 317 317 316 314 315 313 312 312
303 308 313 324 324 326 326 325 325 326 326 324 324 324 322 320 318 314 311 309 308 308 306 298 298 302 303 310 313 313 316 315 315 314 313 310 309 308
304 308 311 321 325 324 324 324 325 324 325 325 324 324 323 321 319 316 313 307 304 303 302 292 293 292 293 295 298 299 301 309 306 309 307 304 299 299
304 312 316 322 325 324 324 323 322 320 323 324 324 323 323 321 320 315 308 302 294 295 299 295 290 289 290 290 291 292 294 298 297 294 295 295 295 294
297 308 317 322 323 324 323 322 317 317 319 320 321 321 322 321 320 318 314 305 296 293 297 296 289 290 286 287 288 289 290 291 293 293 293 292 292 290
291 298 307 315 321 323 323 321 318 320 318 317 319 319 320 319 318 316 316 311 303 301 301 300 290 289 287 285 285 286 287 285 286 287 287 288 287 286
288 290 297 305 313 318 322 322 320 318 315 307 309 310 311 312 313 311 310 308 307 309 307 299 294 292 286 285 284 284 284 284 284 283 283 283 283 284
287 288 290 294 302 309 313 313 315 312 308 302 301 301 306 306 303 303 303 304 304 302 300 297 300 292 292 286 284 284 283 283 283 283 282 283 283 284
284 286 288 289 289 291 294 298 300 303 304 301 298 297 296 294 295 298 294 295 295 290 291 293 295 292 289 287 285 283 282 282 282 282 282 282 282 282
281 281 281 281 282 283 285 287 290 293 296 293 293 290 288 289 289 291 290 290 286 284 285 288 289 290 289 285 283 282 282 282 281 282 282 282 282 283
280 279 278 278 279 280 280 281 282 283 286 289 288 288 288 285 285 286 288 285 283 282 281 282 283 283 282 282 282 282 282 282 282 282 282 282 282 283
279 279 279 278 278 278 279 280 280 280 282 282 283 283 283 283 283 282 282 282 281 281 281 282 283 284 283 281 281 282 282 281 281 281 282 282 283 282
276 276 277 278 278 279 279 279 280 280 280 281 281 281 282 282 282 282 282 282 283 283 284 284 283 282 281 281 279 280 281 281 281 282 282 282 281 281
275 274 274 275 277 278 279 279 279 279 280 281 281 281 281 281 281 281 281 281 281 281 281 281 282 281 280 280 279 278 279 281 282 282 281 281 281 280
272 272 272 272 273 275 277 278 278 278 279 279 280 280 281 281 281 281 280 280 280 280 280 281 281 281 280 280 278 277 276 277 279 279 280 281 281 282
270 271 270 271 271 272 274 275 277 277 278 278 279 279 279 279 279 279 279 279 279 280 280 281 281 281 280 279 279 278 277 276 276 277 274 273 274 274